LISTAGEM DOS SORTEADOS 

CONTEMPLADO CNS CPF CIDADE VALOR DATA
JOVITA WEBER ****08652657*** ***428763** BALSAS R$ 1.000,00 25/06/2021
ALESSIO JOSE KOCHHANN ****02427716*** ***849309** BALSAS R$ 1.000,00 25/06/2021
FRANCISCO PEREIRA DE SOUSA ****08983072*** ***429463** SAO BENEDITO DO RIO PRETO R$ 1.000,00 25/06/2021
ISAIAS ARAUJO GOMES ****06770377*** ***497443** BACURITUBA R$ 1.000,00 25/06/2021
MATILDE DA CRUZ COELHO ****05424429*** ***312223** SAO BENTO R$ 1.000,00 25/06/2021
ANDRE PEREIRA ****01042639*** ***867623** PINHEIRO R$ 1.000,00 25/06/2021
MANOEL SOUZA SILVA ****00743522*** ***973233** PINHEIRO R$ 1.000,00 25/06/2021
MARIA DO CARMO LOPES DA LUZ ****08197284*** ***886023** TUTOIA R$ 1.000,00 25/06/2021
LUCILO MARTINS DA SILVA ****04542540*** ***096423** SAO PEDRO DOS CRENTES R$ 1.000,00 25/06/2021
JOELMA SILVA CRUZ ****03873900*** ***637303** ITAPECURU MIRIM R$ 1.000,00 25/06/2021
CARLOS ALBERTO DOS SANTOS ****04344424*** ***832288** PRIMEIRA CRUZ R$ 1.000,00 25/06/2021
MARIA REGINA SOEIRO MELO ****05226409*** ***354863** SAO LUIS R$ 1.000,00 25/06/2021
JOAQUIM GOMES DOS PASSOS ****04599791*** ***406843** ACAILANDIA R$ 1.000,00 25/06/2021
ANTONIO FURTADO LOPES ****04553450*** ***378663** SAO LUIS R$ 1.000,00 25/06/2021
JESSICA RAYANNE ARAUJO VIEIRA ****01482223*** ***315883** MARACACUME R$ 1.000,00 25/06/2021
MANOEL COSTA ****09059072*** ***421562** CURURUPU R$ 1.000,00 25/06/2021
MARIA JESUS MACEDO CHAVES ****07296388*** ***214783** OLHO D'AGUA DAS CUNHAS R$ 1.000,00 25/06/2021
MARTINHO CARLOS DA SILVA ****01704506*** ***473173** TIMON R$ 1.000,00 25/06/2021
JOSE RIBAMAR LEITE ****01340626*** ***202313** SANTA HELENA R$ 1.000,00 25/06/2021
ANTONIA RITA ALVES DE PAULA ****00321969*** ***366883** SAO DOMINGOS DO MARANHAO R$ 1.000,00 25/06/2021
DOMINGOS CAMARA FRANCA ****07392738*** ***401743** SAO LUIS R$ 1.000,00 25/06/2021
SERGIO LEANDRO COSTA MACHADO ****08221739*** ***375081** SAO JOSE DE RIBAMAR R$ 1.000,00 25/06/2021
LEONITA COSTA RIBEIRO ****02990065*** ***815933** PINHEIRO R$ 1.000,00 25/06/2021
FRANCISCO DE ASSIS ALENCAR SILVA ****09751744*** ***230833** VITORINO FREIRE R$ 1.000,00 25/06/2021
MARCIA LOUISE NASCIMENTO DA SILVA ****06801443*** ***770203** MIRANDA DO NORTE R$ 1.000,00 25/06/2021
CREUSALINA PAIXAO DE OLIVEIRA ****03576822*** ***023123** SAO LUIS R$ 1.000,00 25/06/2021
MARIA DOS PRAZERES MACEDO ALENCAR ****01386523*** ***008233** SANTA INES R$ 1.000,00 25/06/2021
ANTONIO MONTEIRO NETO ****04709312*** ***448003** BURITIRANA R$ 1.000,00 25/06/2021
JURACY RIBEIRO DAMASCENO ****00603265*** ***137463** SAO LUIS R$ 1.000,00 25/06/2021
DJALMA ANTONIO FERREIRA NUNES ****08555235*** ***403513** BACURI R$ 1.000,00 25/06/2021
SALVADOR ARAUJO SOUSA ****03785432*** ***409603** BARRA DO CORDA R$ 1.000,00 25/06/2021
IRONILDE PEREIRA DE SOUSA ****01026076*** ***424203** BARRA DO CORDA R$ 1.000,00 25/06/2021
YEDA LUCIA FERREIRA ARAUJO ****04932780*** ***558623** SAO LUIS R$ 1.000,00 25/06/2021
EDNA CASTRO DE SOUSA ****02355683*** ***675753** DOM PEDRO R$ 1.000,00 25/06/2021
LEONICE COSTA FERREIRA ****00857006*** ***316383** SAO LUIS R$ 1.000,00 25/06/2021
RAIMUNDA PENHA GONZALEZ ****05210757*** ***100443** SAO LUIS R$ 1.000,00 25/06/2021
GEAN OLIVEIRA FAUSTINO GUAJAJARA ****09215046*** ***116663** BARRA DO CORDA R$ 1.000,00 25/06/2021
FLAVIO ROBERTO ARAUJO GOMES ****05186983*** ***419483** SAO LUIS R$ 1.000,00 25/06/2021
SEBASTIAO FERREIRA ****08101497*** ***430023** ROSARIO R$ 1.000,00 25/06/2021
RAIMUNDA NONATA DA CONCEICAO ****07701025*** ***260363** LAGO VERDE R$ 1.000,00 25/06/2021
SANDOSVAL CAPRISTANA COSTA ****05186027*** ***443193** MARANHAOZINHO R$ 1.000,00 25/06/2021
MARIA FRANCINETE ALVES DA SILVA ****02870231*** ***738013** PIRAPEMAS R$ 1.000,00 25/06/2021
JONAS ALMEIDA RODRIGUES DE MATOS ****04877868*** ***945083** SANTA LUZIA R$ 1.000,00 25/06/2021
MARIA FRAZAO MONTEIRO ****09547583*** ***842843** VIANA R$ 1.000,00 25/06/2021
ISMAEL LOPES ARAUJO JUNIOR ****06608281*** ***521803** SAO LUIS R$ 1.000,00 25/06/2021
LUISE NELDES FONSECA DE SOUZA ****09511306*** ***444293** BURITICUPU R$ 1.000,00 25/06/2021
JOAO TRINDADE ****05120214*** ***609113** CEDRAL R$ 1.000,00 25/06/2021
JOSEFA LIMA NERES MOURA ****03691535*** ***931463** CODO R$ 1.000,00 25/06/2021
ANTONIO DAMASIO ARAUJO NETO ****03529055*** ***661603** BEQUIMAO R$ 1.000,00 25/06/2021
MARIA DAS MERCES SOARES ****02154688*** ***736263** SAO LUIS R$ 1.000,00 25/06/2021
EMANOEL DA VERA CRUZ GUIMARAES GOMES ****02513501*** ***518743** SAO LUIS R$ 5.000,00 25/06/2021
JOSE RIBAMAR PEREIRA ****02964785*** ***873303** SAO LUIS R$ 5.000,00 25/06/2021
ALBERTO FAILACHE CORTES ****03077687*** ***581262** SAO LUIS R$ 5.000,00 25/06/2021
MARIA DAS VIRGENS GERMANO DE SALES ****06124810*** ***170743** BALSAS R$ 5.000,00 25/06/2021
PEDRO LOPES DOS SANTOS ****08141911*** ***796263** SAO LUIS GONZAGA DO MARANHAO R$ 5.000,00 25/06/2021
ESINALDO OLIVEIRA CASTELO BRANCO ****09104797*** ***968513** SAO LUIS R$ 5.000,00 25/06/2021
MARIA IZABEL SILVA GOMES ****04698344*** ***963093** BURITI R$ 5.000,00 25/06/2021
MARIA DE JESUS FRANCA RIBEIRO ****08115396*** ***377963** SAO JOSE DE RIBAMAR R$ 5.000,00 25/06/2021
ANA TAISE PEREIRA RIBEIRO DE SOUSA ****08935337*** ***059503** CAXIAS R$ 5.000,00 25/06/2021
AGLAUCIONE SILVA GOMES ****02691208*** ***500493** ACAILANDIA R$ 5.000,00 25/06/2021
ANGELINA LOPES DA SILVA ****04476699*** ***429741** IMPERATRIZ R$ 5.000,00 25/06/2021
MARIA LUZIA DE SOUZA BOA VENTURA ****08110794*** ***842063** SAO LUIS R$ 5.000,00 25/06/2021
ALZIRA MENEZES SARAIVA BELEM ****07290006*** ***270823** BOM JARDIM R$ 5.000,00 25/06/2021
JOSILA DA SILVA PINHEIRO ****06224694*** ***749093** SAO LUIS R$ 5.000,00 25/06/2021
TERESINHA MARQUES SANTOS ****00531585*** ***811403** PACO DO LUMIAR R$ 5.000,00 25/06/2021
GABRIEL SANDES DOS REIS ****00365587*** ***797923** SAO LUIS R$ 5.000,00 25/06/2021
MARIA MADALENA PINHEIRO FREITAS ****09537276*** ***467483** SAO BENTO R$ 5.000,00 25/06/2021
DIANA JACIRA FONSECA DOS SANTOS ****03144878*** ***815943** SAO LUIS R$ 5.000,00 25/06/2021
SEBASTIAO GOMES DA SILVA ****00545369*** ***871029** CAXIAS R$ 5.000,00 25/06/2021
JOSE ALBERTO QUEIROZ DE ARAUJO ****03096417*** ***926003** SAO LUIS R$ 5.000,00 25/06/2021
MARIA RAIMUNDA CANDEIRA CARDOSO ****05069242*** ***549573** SAO LUIS R$ 10.000,00 25/06/2021
JOSENIR DE JESUS CARVALHO FRANCO ****04390552*** ***153213** URBANO SANTOS R$ 10.000,00 25/06/2021
FERNANDO LUIZ VIANA COELHO ****04450638*** ***770423** PACO DO LUMIAR R$ 10.000,00 25/06/2021
JOAO CARLOS AMORIM ****06681289*** ***184103** SAO LUIS R$ 10.000,00 25/06/2021
IZABEL PAES TAVARES SOARES ****06413395*** ***294553** TASSO FRAGOSO R$ 10.000,00 25/06/2021
RAISSA MARTINS SOARES ****08683848*** ***268183** SANTA HELENA R$ 1.000,00 09/07/2021
GUSTAVO DE ABREU FEITOSA ****01504832*** ***816118** BARRA DO CORDA R$ 1.000,00 09/07/2021
DANIELLE GONCALVES MARTINS ****07186986*** ***982653** SAO LUIS R$ 1.000,00 09/07/2021
PERPETUA MENDES SOARES ****09500741*** ***700473** JENIPAPO DOS VIEIRAS R$ 1.000,00 09/07/2021
ISMAEL DA CONCEICAO SILVA ****01416163*** ***260412** JENIPAPO DOS VIEIRAS R$ 1.000,00 09/07/2021
MARIA DE LOURDES DA SILVA SOARES DE SOUSA ****04239499*** ***689613** LIMA CAMPOS R$ 1.000,00 09/07/2021
MARIA JOSE DINIZ DOS ANJOS ****08992269*** ***633783** SAO LUIS R$ 1.000,00 09/07/2021
IASMIM OLIVEIRA LIMA ****05480822*** ***744533** JENIPAPO DOS VIEIRAS R$ 1.000,00 09/07/2021
ELSA MARIA PAIVA ARAUJO ****08073845*** ***965153** SAO VICENTE FERRER R$ 1.000,00 09/07/2021
MARIA DE FATIMA DOS SANTOS AGUIAR ****04919206*** ***035853** SANTA RITA R$ 1.000,00 09/07/2021
ANASELIA DE MELO SILVA ****04318313*** ***986063** GONCALVES DIAS R$ 1.000,00 09/07/2021
RAIMUNDA NONATA CARDOSO MOURA ****01058458*** ***062713** GUIMARAES R$ 1.000,00 09/07/2021
LUZIVALDO BORGES PINHEIRO ****02532798*** ***880613** SAO LUIS R$ 1.000,00 09/07/2021
PAULA RAMOS SOUZA ****01439844*** ***130383** AXIXA R$ 1.000,00 09/07/2021
ILSON ALVES BARROS DE OLIVEIRA ****03218272*** ***857403** FERNANDO FALCAO R$ 1.000,00 09/07/2021
OZIMAR PEREIRA RIBEIRO ****06220991*** ***320533** MATINHA R$ 1.000,00 09/07/2021
RAIMUNDO JOAQUIM DA SILVA ****04720275*** ***753373** CIDELANDIA R$ 1.000,00 09/07/2021
BRASILINA DOS SANTOS MEIRELES ****09015886*** ***601313** MATINHA R$ 1.000,00 09/07/2021
ELYNELTON SANTOS RIBEIRO ****05503981*** ***199183** GUIMARAES R$ 1.000,00 09/07/2021
RENATA DOS SANTOS MACEDO ****05827968*** ***612873** SAO JOSE DE RIBAMAR R$ 1.000,00 09/07/2021
WILSON DE JESUS SANTANA ****08185146*** ***005703** SAO LUIS R$ 1.000,00 09/07/2021
MARIA DA CONSOLACAO DOS SANTOS SILVA ****09921423*** ***487023** ITAIPAVA DO GRAJAU R$ 1.000,00 09/07/2021
MARIA ALMEIDA SILVA ****03514009*** ***587303** SENADOR LA ROCQUE R$ 1.000,00 09/07/2021
ROBERT WAGNER ROCHA LOPES ****02008356*** ***462543** SAO LUIS R$ 1.000,00 09/07/2021
MARIA SOUSA COELHO ****00224987*** ***850293** BALSAS R$ 1.000,00 09/07/2021
VALDELINA DOS SANTOS ****09131507*** ***322953** CANDIDO MENDES R$ 1.000,00 09/07/2021
ADRIANO FERREIRA ****05751470*** ***797123** BACURI R$ 1.000,00 09/07/2021
NATALIA FREIRE AGUIAR ****05958155*** ***448703** RAPOSA R$ 1.000,00 09/07/2021
RAIMUNDO NONATO VIEIRA DA CONCEICAO ****06754367*** ***065713** RAPOSA R$ 1.000,00 09/07/2021
ROSINETE LIMA DA CONCEICAO ****05681132*** ***017593** ITAIPAVA DO GRAJAU R$ 1.000,00 09/07/2021
SELESTINA SOARES DOS REIS ****05227975*** ***404543** RAPOSA R$ 1.000,00 09/07/2021
VALDIANE DO SOCORRO GUIMARAES ALVES ****05996329*** ***112903** CANDIDO MENDES R$ 1.000,00 09/07/2021
PAULA GARDENIA SANTOS DE PAULA ****05618207*** ***893781** LIMA CAMPOS R$ 1.000,00 09/07/2021
MARIA ALICE DOS SANTOS NASCIMENTO ****07972811*** ***122603** CANDIDO MENDES R$ 1.000,00 09/07/2021
HORTENCIA MARIA DE PAIVA ****09113019*** ***566703** BACABAL R$ 1.000,00 09/07/2021
CARLOS ANDRE PEREIRA OLIVEIRA ****00082951*** ***316543** ALCANTARA R$ 1.000,00 09/07/2021
ANALIA BARROS LOPES ****05260993*** ***888643** IMPERATRIZ R$ 1.000,00 09/07/2021
MARIA FRANCISCA DE SOUSA SANTOS ****08968822*** ***892453** AMARANTE DO MARANHAO R$ 1.000,00 09/07/2021
CICERO DEUSINHO FERREIRA DE SOUSA ****02059673*** ***960703** CODO R$ 1.000,00 09/07/2021
LEILA FREITAS LIMA ****08552977*** ***563342** CARUTAPERA R$ 1.000,00 09/07/2021
MARIA RIBAMAR CORREIA COSTA ****02757414*** ***098863** SANTA RITA R$ 1.000,00 09/07/2021
RAIMUNDO NONATO CONCEICAO ****08934495*** ***609293** SANTA RITA R$ 1.000,00 09/07/2021
JUCELIA DO NASCIMENTO E SILVA ****04008408*** ***366673** AMARANTE DO MARANHAO R$ 1.000,00 09/07/2021
NATALIA DOS SANTOS BARBOSA ****03958256*** ***895333** SAO LUIS R$ 1.000,00 09/07/2021
RAIMUNDO CORREA ****03863485*** ***653132** SANTA RITA R$ 1.000,00 09/07/2021
MARIA IRAILDE SANTOS ****06871235*** ***248503** SAO MATEUS DO MARANHAO R$ 1.000,00 09/07/2021
JOSE CLAUDINO PEREIRA ****07920482*** ***376433** SAO LUIS R$ 1.000,00 09/07/2021
MARIA DE LOURDES GOMES DIAS ****09270307*** ***913993** RAPOSA R$ 1.000,00 09/07/2021
PEDRO FELIX DOS SANTOS ****04405148*** ***893533** IGARAPE GRANDE R$ 1.000,00 09/07/2021
MARIA CICERA FERREIRA BASTOS ****07604238*** ***141103** BREJO R$ 1.000,00 09/07/2021
ESMERALDA ALVES DA SILVA ****08119986*** ***507703** SENADOR LA ROCQUE R$ 5.000,00 09/07/2021
GRACIETE GOMES SOUSA ****08329131*** ***632083** SAO LUIS R$ 5.000,00 09/07/2021
MARIA JANUARIA DA SILVA SANTOS ****00204014*** ***837473** BREJO R$ 5.000,00 09/07/2021
LETYCIA KAROLINE DE SANTANA FERREIRA ****00403406*** ***785791** BALSAS R$ 5.000,00 09/07/2021
PEDRO PEREIRA DA SILVA ****03326446*** s/n BALSAS R$ 5.000,00 09/07/2021
TEREZINHA DE JESUS CAVALCANTE LIMA ****01972616*** ***395523** BALSAS R$ 5.000,00 09/07/2021
FRANCISCO ALVES DE SOUZA ****05603524*** ***318655** SANTA RITA R$ 5.000,00 09/07/2021
DEURIANE DE ALMEIDA FERREIRA ****00032078*** ***819143** AMARANTE DO MARANHAO R$ 5.000,00 09/07/2021
MARILENE DE MORAES OLIVEIRA ****06440650*** ***230043** SAO MATEUS DO MARANHAO R$ 5.000,00 09/07/2021
MARIA DA CONCEICAO ALVES DA COSTA ****06061646*** ***834243** CODO R$ 5.000,00 09/07/2021
WALDERLAN MENDES DA SILVA ****09289512*** ***384493** SAO MATEUS DO MARANHAO R$ 5.000,00 09/07/2021
NESTOR ALVES DA SILVA ****06279325*** ***137573** AMARANTE DO MARANHAO R$ 5.000,00 09/07/2021
JOSE FERREIRA PARGA ****06692199*** ***738093** SAO MATEUS DO MARANHAO R$ 5.000,00 09/07/2021
RAIMUNDA NONATA SILVA RIBEIRO ****06769405*** ***221732** OLINDA NOVA DO MARANHAO R$ 5.000,00 09/07/2021
EMILIANA MUNIZ SILVA ****02749316*** ***919143** SANTA RITA R$ 5.000,00 09/07/2021
NATALIA BESERRA DO NASCIMENTO ****04107913*** ***815423** LIMA CAMPOS R$ 5.000,00 09/07/2021
DOMINGOS JOSE DOS SANTOS RODRIGUES ****07790122*** ***479293** PRIMEIRA CRUZ R$ 5.000,00 09/07/2021
MARCOS ALEXANDRE SERRA DIAS ****03672631*** ***086593** SAO LUIS R$ 5.000,00 09/07/2021
CARLOS MARCIEL DOS SANTOS MUNIZ ****02412051*** ***287723** SANTA RITA R$ 5.000,00 09/07/2021
JOSE AUGUSTO GUIMARAES MUNIZ ****03000161*** ***065283** SANTA RITA R$ 5.000,00 09/07/2021
RAIMUNDO DA SILVA REIS ****01083808*** ***725973** BURITI BRAVO R$ 10.000,00 09/07/2021
NORMA WAQUIM DE ASSUNCAO ****02348110*** ***024513** TIMON R$ 10.000,00 09/07/2021
RAIMUNDO ALVES DA SILVA ****05427026*** ***640753** GONCALVES DIAS R$ 10.000,00 09/07/2021
NEUTONINA DA PAIXAO MORAIS ****01901666*** ***250323** ESTREITO R$ 10.000,00 09/07/2021
JOAO BATISTA ATAIDES SANTOS ****02096387*** ***181593** SAO LUIS R$ 10.000,00 09/07/2021
MARIA DAS GRACAS ARAUJO ****09839745*** ***962503** GUIMARAES R$ 1.000,00 23/07/2021
JOAO GOMES DOS SANTOS ****07618209*** ***283923** SANTA RITA R$ 1.000,00 23/07/2021
JESSONILDE VIEIRA DUARTE MARQUES ****29251960*** s/n GRACA ARANHA R$ 1.000,00 23/07/2021
ANTONIO CARLOS DOS SANTOS GOMES ****06856716*** ***088343** TRIZIDELA DO VALE R$ 1.000,00 23/07/2021
ISABEL SANTOS CUTRIM COSTA ****00258373*** ***948933** MATINHA R$ 1.000,00 23/07/2021
MARINALVA DOS SANTOS ****07027722*** ***874063** SAO LUIS R$ 1.000,00 23/07/2021
ELIETE DE AQUINO SILVA ****05559672*** ***716913** LIMA CAMPOS R$ 1.000,00 23/07/2021
JOSE LUIS PAIXAO RIBEIRO ****04987391*** ***348242** SANTA RITA R$ 1.000,00 23/07/2021
DOMINGAS DE JESUS MENDONCA ****09226558*** ***879043** MATINHA R$ 1.000,00 23/07/2021
FRANCISCO DOS SANTOS FREITAS ****04548054*** ***404573** SANTA INES R$ 1.000,00 23/07/2021
EDILEUSA MARTINS LUCIA DE OLIVEIRA ****00198730*** ***571503** JATOBA R$ 1.000,00 23/07/2021
JOAO EVANGELISTA LIMA ****02736710*** ***959703** MATOES R$ 1.000,00 23/07/2021
RAIMUNDO NONATO FERREIRA LIMA ****02553661*** ***235633** SANTA RITA R$ 1.000,00 23/07/2021
CARLOS ALBERTO CUTRIM ****05765892*** ***217203** SANTA RITA R$ 1.000,00 23/07/2021
ROGERIA BULHAO BARROSO ****00218576*** ***271053** LIMA CAMPOS R$ 1.000,00 23/07/2021
DINO CESAR MARTINS ****04730579*** ***702973** CAJAPIO R$ 1.000,00 23/07/2021
ANTONIA MARIA FERREIRA SENA ****07800654*** ***404093** SANTA RITA R$ 1.000,00 23/07/2021
CARMOSINA RESPLANDES DOS REIS ****50090689*** s/n FERNANDO FALCAO R$ 1.000,00 23/07/2021
MARIA DAS GRACAS MEIRELES ****05203060*** ***406873** OLINDA NOVA DO MARANHAO R$ 1.000,00 23/07/2021
CRISTIANE DE JESUS MIRANDA FONSECA ****00793856*** ***367083** CAJAPIO R$ 1.000,00 23/07/2021
RAIMUNDO ADALTO BARROS DE SOUSA ****00194398*** ***430663** NOVA OLINDA DO MARANHAO R$ 1.000,00 23/07/2021
FABIANO ANTONIO NEVES CHAVES ****07355319*** ***277483** BACURITUBA R$ 1.000,00 23/07/2021
GERALDO AFONSO MARQUES SILVA ****06180903*** ***740523** SANTA RITA R$ 1.000,00 23/07/2021
PYKUY KAAPOR ****02357059*** ***953913** ZE DOCA R$ 1.000,00 23/07/2021
CLAUDIO DE SOUSA SOARES ****02949005*** ***141783** LIMA CAMPOS R$ 1.000,00 23/07/2021
MARIA ANTONIA DA ROCHA VIANA ****01635038*** ***287623** BREJO R$ 1.000,00 23/07/2021
IVA MARIA DOS SANTOS ****01587977*** ***699973** BREJO R$ 1.000,00 23/07/2021
RAIMUNDO JOAO OLIVEIRA DOURADO ****01415374*** ***589343** CAJAPIO R$ 1.000,00 23/07/2021
MARIA INEIS NUNES VILAR ****01967518*** ***497133** PRIMEIRA CRUZ R$ 1.000,00 23/07/2021
MARIA DO AMPARO AMORIM ****09897763*** ***532803** CAJAPIO R$ 1.000,00 23/07/2021
JOSE LINO ARAUJO ****03743681*** ***271373** GUIMARAES R$ 1.000,00 23/07/2021
REGINALDO RIBEIRO ****09672595*** ***300743** GUIMARAES R$ 1.000,00 23/07/2021
ALDEMIRO OLIVEIRA ****09158848*** ***727893** PRIMEIRA CRUZ R$ 1.000,00 23/07/2021
PAULO RENE MOURA DA COSTA ****09952514*** ***032983** LIMA CAMPOS R$ 1.000,00 23/07/2021
MARIA JOSE FERREIRA SANTANA ****02768541*** ***563493** SANTA RITA R$ 1.000,00 23/07/2021
RAIMUNDO NONATO SILVA PAVAO ****03650910*** ***785843** SANTA HELENA R$ 1.000,00 23/07/2021
AGDA MARIA OLIVEIRA CAMPOS ****08996331*** ***531843** CAJAPIO R$ 1.000,00 23/07/2021
FRANCISCO LOPES DE SOUSA ****06544854*** ***052183** LIMA CAMPOS R$ 1.000,00 23/07/2021
ELIZANGELA MAGALHAES DOS SANTOS ****04752565*** ***479853** BURITICUPU R$ 1.000,00 23/07/2021
JOSE DE ALENCAR DE SOUSA VERAS ****03380859*** ***297193** SAO MATEUS DO MARANHAO R$ 1.000,00 23/07/2021
ANTONIO CONCEICAO CARDOSO ****06064307*** ***788543** SANTA RITA R$ 1.000,00 23/07/2021
MAYANE MACEDO PEREIRA ****07009952*** ***203003** PINHEIRO R$ 1.000,00 23/07/2021
CLEONICE PINHEIRO DO NASCIMENTO ****06982790*** ***075583** MATOES R$ 1.000,00 23/07/2021
LUCIO CONRADO SERRA ****06916346*** ***474613** CAJAPIO R$ 1.000,00 23/07/2021
NISANGELA RIBEIRO PEREIRA ****02824843*** ***207223** MATINHA R$ 1.000,00 23/07/2021
ANTONIO SEBASTIAO MARQUES CARVALHO ****01162370*** ***469553** LIMA CAMPOS R$ 1.000,00 23/07/2021
ESTEVAM DOS ANJOS FREITAS ****04379601*** ***699593** SANTA RITA R$ 1.000,00 23/07/2021
MARIA DOMINGAS GUIMARAES ****09267500*** ***113273** SANTA RITA R$ 1.000,00 23/07/2021
FRANCINALDO DE NOVAIS PIRES ****03348238*** ***933163** PEDREIRAS R$ 1.000,00 23/07/2021
ELPIDIA GOMES ****00678833*** ***284143** SANTA RITA R$ 1.000,00 23/07/2021
RAIMUNDA FERREIRA ALMEIDA ****02281086*** ***494033** COROATA R$ 5.000,00 23/07/2021
ILDA DOS SANTOS MENDONCA ****03755176*** ***125913** COROATA R$ 5.000,00 23/07/2021
PEDRO DE MELO PEREIRA ****09062981*** ***653333** COROATA R$ 5.000,00 23/07/2021
FRANCISCA PEREIRA GOMES ****09785184*** ***943603** ALDEIAS ALTAS R$ 5.000,00 23/07/2021
JOSE DE ARIMATEIA TORRES SILVA ****08054020*** ***987393** ITAPECURU MIRIM R$ 5.000,00 23/07/2021
MARIA DE FATIMA COSTA DE MORAIS ALVES ****01812042*** ***155171** SAO BENEDITO DO RIO PRETO R$ 5.000,00 23/07/2021
CELESTINA EREMITA VIANA FERREIRA ****06026199*** ***583943** ITAPECURU MIRIM R$ 5.000,00 23/07/2021
JOANA PEREIRA RODRIGUES ****03989635*** ***721603** ITAPECURU MIRIM R$ 5.000,00 23/07/2021
ANIEL MELO ****09949677*** ***651153** ITAPECURU MIRIM R$ 5.000,00 23/07/2021
GUILHERMINA DA SILVA AIRES CASTRO ****09567805*** ***793593** MAGALHAES DE ALMEIDA R$ 5.000,00 23/07/2021
JOSE CARLOS MORAES VIANA ****05580465*** ***818553** ITAPECURU MIRIM R$ 5.000,00 23/07/2021
HILDA PAULA DOS SANTOS ****07384630*** ***638583** ITAPECURU MIRIM R$ 5.000,00 23/07/2021
LUIZ AUGUSTO MUNIZ MENDES ****06186773*** ***048557** ITAPECURU MIRIM R$ 5.000,00 23/07/2021
FRANCISCO RODRIGUES DOS SANTOS ****06692994*** ***472123** SAO LUIS R$ 5.000,00 23/07/2021
JOCINALVA DOS SANTOS NUNES ****09722972*** ***119993** HUMBERTO DE CAMPOS R$ 5.000,00 23/07/2021
RAIMUNDA DOS SANTOS LISBOA ****01197139*** ***809403** ITAPECURU MIRIM R$ 5.000,00 23/07/2021
ENEDINA DO NASCIMENTO CARDOSO ****02324381*** ***614633** SAO BENEDITO DO RIO PRETO R$ 5.000,00 23/07/2021
ESAU DO AMARAL SOUSA ****09509443*** ***099833** HUMBERTO DE CAMPOS R$ 5.000,00 23/07/2021
SALVADOR ALVES LIMA ****08414353*** ***809083** COLINAS R$ 5.000,00 23/07/2021
RUBENITA VIEIRA DA SILVA ****07193071*** ***438173** COLINAS R$ 5.000,00 23/07/2021
ANA NAZARE RIBEIRO AMORIM ****07270074*** ***263793** MATINHA R$ 10.000,00 23/07/2021
GERALDO BRITO DOS REIS ****06167298*** ***278483** SANTA RITA R$ 10.000,00 23/07/2021
JOSIANE RODRIGUES RIBEIRO ****01822891*** ***483713** MATINHA R$ 10.000,00 23/07/2021
GRIGORIO SINFORIO SANTOS DOURADO ****06065810*** ***887113** CAJAPIO R$ 10.000,00 23/07/2021
JOANA DA CRUZ SANTOS ****03954334*** ***971493** SAO LUIS R$ 10.000,00 23/07/2021
BERNARDA SOUSA CASTRO ****05803313*** ***501033** SANTA QUITERIA DO MARANHAO R$ 1.000,00 06/08/2021
ANTONIO NETO SOUZA SANTOS ****01876424*** ***585193** CAXIAS R$ 1.000,00 06/08/2021
MARIA ANTONIETA SILVA CUTRIM ****06850243*** ***201553** SANTA INES R$ 1.000,00 06/08/2021
MARIA DE FATIMA FERREIRA MARTINS ****09118162*** ***375813** SAO LUIS R$ 1.000,00 06/08/2021
CLEIDE MARIA RIBEIRO DA CONCEICAO ****01508261*** ***597313** CAXIAS R$ 1.000,00 06/08/2021
CAETANO LUIZ CASTRO DA SILVA ****00002247*** ***650077** SAO JOSE DE RIBAMAR R$ 1.000,00 06/08/2021
JOSE DOMINGOS FERREIRA BRANDAO ****02391050*** ***876933** BOM JESUS DAS SELVAS R$ 1.000,00 06/08/2021
MARIA DO CARMO MARQUES SILVA ****08570098*** ***040713** SAO JOSE DE RIBAMAR R$ 1.000,00 06/08/2021
DILMAR DE OLIVEIRA SANTOS ****01108243*** ***533827** ZE DOCA R$ 1.000,00 06/08/2021
ANTONIO MORAES CAMARA ****08822471*** ***988793** SANTA HELENA R$ 1.000,00 06/08/2021
MARIA DA GLORIA LUZ FERREIRA ****06962247*** ***633283** SAO JOSE DE RIBAMAR R$ 1.000,00 06/08/2021
EDMILSON CANTANHEDE ****00030922*** ***128393** SAO JOSE DE RIBAMAR R$ 1.000,00 06/08/2021
JODSON DE JESUS ARAUJO CARVALHO ****04429586*** ***906963** CURURUPU R$ 1.000,00 06/08/2021
RAIMUNDO GOMES ****07614238*** ***525393** PRESIDENTE MEDICI R$ 1.000,00 06/08/2021
DJALMA BEZERRA VASCONCELOS ****07999423*** ***247503** SAO JOSE DE RIBAMAR R$ 1.000,00 06/08/2021
BENVINDA CLAUDIANA PEREIRA DOS SANTOS ****08931692*** ***739273** SAO JOSE DE RIBAMAR R$ 1.000,00 06/08/2021
RAIMUNDA DE JESUS FERREIRA NUNES ****01509303*** ***558403** SAO LUIS R$ 1.000,00 06/08/2021
MARIA LUCIA MONTEIRO ****03118936*** ***326053** SANTA HELENA R$ 1.000,00 06/08/2021
JOANA DE SOUSA VERAS ****07770004*** ***882913** SAO LUIS R$ 1.000,00 06/08/2021
CONCEICAO DE JESUS RAMOS ****08310026*** ***721553** SANTA LUZIA DO PARUA R$ 1.000,00 06/08/2021
DOMINGOS FRANKILINO BARBOSA ****01444270*** ***341503** SAO JOSE DE RIBAMAR R$ 1.000,00 06/08/2021
OSVALDO ABREU ****08281960*** ***091613** TURILANDIA R$ 1.000,00 06/08/2021
VALDIVINO PEREIRA ****06606350*** ***952263** TURILANDIA R$ 1.000,00 06/08/2021
MARCIANA SODRE SANTOS ****02399131*** ***185813** SAO JOSE DE RIBAMAR R$ 1.000,00 06/08/2021
MARIA AUXILIADORA RAMOS SILVA ****09755361*** ***011363** SAO LUIS R$ 1.000,00 06/08/2021
ANTONIO MOISES ROCHA DE SOUSA ****08341359*** ***253733** OLHO D'AGUA DAS CUNHAS R$ 1.000,00 06/08/2021
BERNARDO MATOS DE ARAUJO ****08767047*** ***418033** BACABAL R$ 1.000,00 06/08/2021
ANTONIA ALVES DE POMPEU ****01625810*** ***447623** SAO MATEUS DO MARANHAO R$ 1.000,00 06/08/2021
ANTONIA LIMA DE SOUZA ****03631851*** ***129973** BOM JARDIM R$ 1.000,00 06/08/2021
BIBIANA VIEIRA VILAR ****00747961*** ***959063** ARAIOSES R$ 1.000,00 06/08/2021
MARIA JOSE MENDES PEREIRA ****05265184*** ***454293** SAO LUIS R$ 1.000,00 06/08/2021
MARIA DE NAZARE SILVA ****03832265*** ***692523** TIMBIRAS R$ 1.000,00 06/08/2021
FRANCISCO ALVES DE MELO ****03171894*** ***134803** BELA VISTA DO MARANHAO R$ 1.000,00 06/08/2021
ANTONIO COSTA ****01030693*** ***589582** ACAILANDIA R$ 1.000,00 06/08/2021
CRIDENOR SOUSA DE OLIVEIRA ****01433585*** ***332003** VITORIA DO MEARIM R$ 1.000,00 06/08/2021
ANTONIA PIA DA SILVA LAMEU ****03365741*** ***000803** IMPERATRIZ R$ 1.000,00 06/08/2021
RUBERVAL RIBEIRO LOPES ****02507279*** ***518023** RIACHAO R$ 1.000,00 06/08/2021
MARTINHA MAIA NUNES ****06298456*** ***296853** PENALVA R$ 1.000,00 06/08/2021
LUSIA AGUIAR RAMOS ****08531847*** ***339593** SANTO AMARO DO MARANHAO R$ 1.000,00 06/08/2021
ALDEIDE NUNES DE ALMEIDA ****04760538*** ***231243** SANTO AMARO DO MARANHAO R$ 1.000,00 06/08/2021
DOMINGOS PEREIRA DA CUNHA ****01431218*** ***436433** MIRADOR R$ 1.000,00 06/08/2021
RAIMUNDO EVANGELISTA BATISTA ****08804305*** ***183463** ACAILANDIA R$ 1.000,00 06/08/2021
FRANCISCO RODRIGUES DE SOUSA ****09135966*** ***919993** SANTO AMARO DO MARANHAO R$ 1.000,00 06/08/2021
DIOLINO DE ARAUJO FRANCA ****02852720*** ***462931** RIACHAO R$ 1.000,00 06/08/2021
ANTONIA ENILDA PEREIRA DOS SANTOS ****01565534*** ***651053** MATOES R$ 1.000,00 06/08/2021
VICENTE DA COSTA SOUSA ****01312327*** ***830753** BREJO R$ 1.000,00 06/08/2021
MARIA DAMIANA MENDES ****05631177*** ***849113** BACABEIRA R$ 1.000,00 06/08/2021
AMANDA DE JESUS MIRANDA BARROS ****08080086*** ***652243** SAMBAIBA R$ 1.000,00 06/08/2021
MARIA FRANCISCA DA SILVA SOUSA ****03683632*** ***731943** PAULO RAMOS R$ 1.000,00 06/08/2021
RAIMUNDA MARIA DOS SANTOS ****07850313*** ***144663** ITAPECURU MIRIM R$ 1.000,00 06/08/2021
RIVALDO DA SILVA QUEIROZ DO AMARAL ****05339114*** ***755263** BACABAL R$ 5.000,00 06/08/2021
EDEILSON MARIANO SOUSA ****01142574*** ***140663** SANTA LUZIA R$ 5.000,00 06/08/2021
MARIA ALINE SILVA PEREIRA ****08548682*** ***704613** SAO LUIS R$ 5.000,00 06/08/2021
RONALDO MARQUES NUNES ****00368347*** ***873233** BALSAS R$ 5.000,00 06/08/2021
SUELE BARROS DA COSTA DE OLIVEIRA ****00061560*** ***505853** IMPERATRIZ R$ 5.000,00 06/08/2021
JOAO BATISTA MARIANO CARNEIRO FILHO ****06652250*** ***203133** IMPERATRIZ R$ 5.000,00 06/08/2021
FRANCISCO XAVIER DA SILVA NETO ****06721908*** ***631603** JOAO LISBOA R$ 5.000,00 06/08/2021
EUNICE SILVEIRA TRABACH ****07909203*** ***813893** VILA NOVA DOS MARTIRIOS R$ 5.000,00 06/08/2021
JORDANIA ALMEIDA SILVA ****03691802*** ***591803** JOAO LISBOA R$ 5.000,00 06/08/2021
WENDEL NASCIMENTO BATISTA ****00048852*** ***518363** IMPERATRIZ R$ 5.000,00 06/08/2021
FRANCISCA VAGDA LIMA SOUSA ****06809158*** ***445713** IMPERATRIZ R$ 5.000,00 06/08/2021
ALCICREA ALVES MELO ****00056893*** ***503263** IMPERATRIZ R$ 5.000,00 06/08/2021
HERMESON JORGE FERREIRA DOS SANTOS JUNIOR ****06679752*** ***186033** BACABAL R$ 5.000,00 06/08/2021
MANOEL FERREIRA DOS ANJOS ****08117267*** ***007303** BALSAS R$ 5.000,00 06/08/2021
WYNNE EMANUELLE PEREIRA ABREU ****74139550*** ***969003** BACABAL R$ 5.000,00 06/08/2021
PAULO DE JESUS SILVA ****02826020*** ***818653** BACABAL R$ 5.000,00 06/08/2021
SANDY DE ARAUJO DE JESUS ****01403794*** ***301683** BACABAL R$ 5.000,00 06/08/2021
RANYERE JANSEN E SILVA ****04373880*** ***715543** COELHO NETO R$ 5.000,00 06/08/2021
PLEYMA NUNES DE SOUSA ****07981449*** ***452063** IMPERATRIZ R$ 5.000,00 06/08/2021
SUERLY DE LIMA SALES NASCIMENTO ****00984315*** ***463433** IMPERATRIZ R$ 5.000,00 06/08/2021
MARILENE SOARES LOBO BARBOSA ****07657612*** ***123803** CHAPADINHA R$ 10.000,00 06/08/2021
RODRIGO CAETANO SILVA ****02033787*** ***342573** IMPERATRIZ R$ 10.000,00 06/08/2021
JOSELITA CAVALCANTE NEVES ****03610383*** ***504743** SAO LUIS R$ 10.000,00 06/08/2021
FRANCILURDES BACELAR SOUSA ****01285697*** ***111163** GOVERNADOR NUNES FREIRE R$ 10.000,00 06/08/2021
OTAVIA ALVES PEREIRA BISPO ****06691497*** ***972653** MIRADOR R$ 10.000,00 06/08/2021
PERPETUA MENDES DE SOUSA ****09360814*** ***977053** SAO DOMINGOS DO MARANHAO R$ 1.000,00 22/08/2021
EVANICE SOUSA ALCANTARA ****06930699*** ***797413** SAO DOMINGOS DO MARANHAO R$ 1.000,00 22/08/2021
RAILMA BRITO SOUSA ****09348691*** ***137733** IMPERATRIZ R$ 1.000,00 22/08/2021
FABIANA VIEIRA OLIVEIRA ****03959754*** ***343333** IMPERATRIZ R$ 1.000,00 22/08/2021
MARCIA DOS SANTOS PAIXAO ****01281678*** ***254133** IMPERATRIZ R$ 1.000,00 22/08/2021
TEREZA GREGORIO GUAJAJARA ****04155486*** ***312143** GRAJAU R$ 1.000,00 22/08/2021
JOAO ALVES BEZERRA ****07363601*** ***840593** SAO DOMINGOS DO MARANHAO R$ 1.000,00 22/08/2021
ROSENILDE DE SOUSA CAMURCA ****08631968*** ***929553** SENADOR LA ROCQUE R$ 1.000,00 22/08/2021
ANA JULIA BOAES DOS SANTOS SILVA ****04412076*** ***292053** IMPERATRIZ R$ 1.000,00 22/08/2021
MARIA FRANCISCA NETO ****06539898*** ***225403** BACABAL R$ 1.000,00 22/08/2021
ENEDINA RIBEIRO DA SILVA ****09356865*** ***989112** IMPERATRIZ R$ 1.000,00 22/08/2021
MARIA FERNANDES DE SOUSA ****02098351*** ***066401** SAO DOMINGOS DO MARANHAO R$ 1.000,00 22/08/2021
EUDOXO ALVES DE OLIVEIRA ****03578796*** ***586803** SAO DOMINGOS DO MARANHAO R$ 1.000,00 22/08/2021
VICENTE VIEIRA DA SILVA ****08489990*** ***182613** SAO DOMINGOS DO MARANHAO R$ 1.000,00 22/08/2021
EXPEDITA RODRIGUES DA SILVA ****05670817*** ***857033** LAGO DA PEDRA R$ 1.000,00 22/08/2021
ALVINA ROSA DOS SANTOS ****03650228*** ***260983** LAGO DA PEDRA R$ 1.000,00 22/08/2021
CONSTANCIA MENDES DA CONCEICAO ****00949650*** ***751473** CANTANHEDE R$ 1.000,00 22/08/2021
JOSEVANDRO ANDRADE MARTINS ****06273466*** ***509093** CANTANHEDE R$ 1.000,00 22/08/2021
FLAVIANO FERREIRA ****06214154*** ***630203** SANTA INES R$ 1.000,00 22/08/2021
ELESBAO ALVES MORAIS ****01097547*** ***245473** SANTA LUZIA R$ 1.000,00 22/08/2021
RAIMUNDA SOARES ****03231278*** ***090663** SAO JOAO BATISTA R$ 1.000,00 22/08/2021
SEBASTIAO DE JESUS LOPES ****07767120*** ***826943** APICUM-ACU R$ 1.000,00 22/08/2021
RAIMUNDO BENEDITO FRANCA SOUZA ****08649392*** ***474543** PALMEIRANDIA R$ 1.000,00 22/08/2021
CIRIACO FERREIRA DA SILVA ****04319492*** ***558913** SANTO ANTONIO DOS LOPES R$ 1.000,00 22/08/2021
HUMBERTO CARLOS ARAUJO ROCHA ****00767191*** ***863343** SAO JOSE DE RIBAMAR R$ 1.000,00 22/08/2021
MARIA JULIA MENEZES DA SILVA ****04791218*** ***396903** ESPERANTINOPOLIS R$ 1.000,00 22/08/2021
JOSEFA FERREIRA ****01983365*** ***539203** APICUM-ACU R$ 1.000,00 22/08/2021
ANTONIO QUARESMA BEZERRA ****05178731*** ***266143** SANTA LUZIA R$ 1.000,00 22/08/2021
PEDRO LOUZEIRO ****09153163*** ***148053** CEDRAL R$ 1.000,00 22/08/2021
MARIA WILLANA RODRIGUES SILVA ****06147991*** ***709903** ESPERANTINOPOLIS R$ 1.000,00 22/08/2021
ALFREDO SANTIAGO ****07673606*** ***507353** SANTA LUZIA R$ 1.000,00 22/08/2021
MARIA OLIVEIRA DA SILVA ****08280870*** ***623893** ESPERANTINOPOLIS R$ 1.000,00 22/08/2021
FRANCISCO RODRIGUES DE MIRANDA ****01252520*** ***154953** DOM PEDRO R$ 1.000,00 22/08/2021
RAIMUNDA DA SILVA CORREIA ****08494120*** ***323373** SANTA LUZIA R$ 1.000,00 22/08/2021
EULALIA CLARA DOS SANTOS ****05848386*** ***073133** SANTA LUZIA R$ 1.000,00 22/08/2021
EDMILSON TIBIRICA COELHO LEITE ****07137650*** ***337933** SAO LUIS R$ 1.000,00 22/08/2021
RAIMUNDA FIRMINA REIS LEITAO ****01176780*** ***686613** CANTANHEDE R$ 1.000,00 22/08/2021
PEDRO NASCIMENTO BARROSO ****09366077*** ***842923** CANTANHEDE R$ 1.000,00 22/08/2021
ADELIA CARNEIRO DE SOUZA ****04646260*** ***637583** ESPERANTINOPOLIS R$ 1.000,00 22/08/2021
GONCALO ALVES DA ASSUNCAO ****04382015*** ***984732** APICUM-ACU R$ 1.000,00 22/08/2021
LAURITA DA CONCEICAO PEREIRA MARQUES ****08630435*** ***543283** CEDRAL R$ 1.000,00 22/08/2021
FAUSTINO ALVES DOS SANTOS ****07897726*** ***989823** SAO LUIS R$ 1.000,00 22/08/2021
RAIMUNDO NONATO SOARES ****04835707*** ***758773** SAO JOAO BATISTA R$ 1.000,00 22/08/2021
JOSE ALVES PEREIRA ****02081947*** ***573943** SANTA LUZIA R$ 1.000,00 22/08/2021
MANOEL MESSIAS ALVES DA CONCEICAO ****03956226*** ***872603** PINDARE-MIRIM R$ 1.000,00 22/08/2021
ANGELINA ROSA DA SILVA ****09324292*** ***379333** ICATU R$ 1.000,00 22/08/2021
ALIXANDRINA LOPES FERREIRA ****03373516*** ***411223** ITAPECURU MIRIM R$ 1.000,00 22/08/2021
ZULMIRA ALVES RODRIGUES ****04170934*** ***043173** CODO R$ 1.000,00 22/08/2021
MARIA DAS DORES DA SILVA MOURA ****07806258*** ***165743** JUNCO DO MARANHAO R$ 1.000,00 22/08/2021
MARIA GUILHERME ****06917932*** ***116913** ITAPECURU MIRIM R$ 1.000,00 22/08/2021
REGIANE PEREIRA DOS PASSOS ****03286998*** ***101853** JOSELANDIA R$ 1.000,00 22/08/2021
AMANDA CAMARA MAGALHAES ****05143798*** ***128793** PALMEIRANDIA R$ 1.000,00 22/08/2021
RAIMUNDA PEREIRA SOUSA ****03762877*** ***130603** SAO LUIS R$ 1.000,00 22/08/2021
JOSE ALVES ****08543168*** ***499033** SAO BERNARDO R$ 1.000,00 22/08/2021
RAIMUNDA BEZERRA DA SILVA ****07471984*** ***714603** CAXIAS R$ 1.000,00 22/08/2021
MAUD PEREIRA MUBARACK ****05936804*** ***148673** ITAPECURU MIRIM R$ 1.000,00 22/08/2021
CLAY REGINA DIAS ****02507814*** ***950583** SANTA RITA R$ 1.000,00 22/08/2021
MARIA ZULEIDE BARBOSA GUIMARAES ****00324947*** ***276103** CIDELANDIA R$ 1.000,00 22/08/2021
JOSE CONCEICAO CARVALHO ****08066139*** ***083993** COROATA R$ 1.000,00 22/08/2021
SUELY GUIMARAES DAMASCENO ****07613085*** ***738603** COROATA R$ 1.000,00 22/08/2021
FRANCISCA DO NASCIMENTO SILVA ****02568388*** ***959673** POCAO DE PEDRAS R$ 1.000,00 22/08/2021
MANOEL JOSE DA SILVA ****05720679*** ***720203** PORTO FRANCO R$ 1.000,00 22/08/2021
MARIA ASSUNCAO RODRIGUES DA COSTA ****05069695*** ***899933** PASTOS BONS R$ 1.000,00 22/08/2021
ELINOR FERREIRA DA SILVA ****05422709*** ***185353** ITAPECURU MIRIM R$ 1.000,00 22/08/2021
MADALENA PEREIRA SILVA ****01729115*** ***171533** SANTA INES R$ 1.000,00 22/08/2021
JOANA ROSA CARVALHO ****06652930*** ***057813** CAXIAS R$ 1.000,00 22/08/2021
MARIA STEFANE SIMEAO DE SOUSA ****07174690*** ***409753** COROATA R$ 1.000,00 22/08/2021
MARIA JOSE DA LUZ ****01286219*** ***932233** SAO LUIS R$ 1.000,00 22/08/2021
CACILDA MAIA SANTA BRIGIDA ****04277938*** ***285812** CARUTAPERA R$ 1.000,00 22/08/2021
LUANNE MENDONCA PEREIRA LOPES ****05086074*** ***727883** SAO LUIS R$ 1.000,00 22/08/2021
MARIA MADALENA MONTEIRO RIBEIRO ****07270481*** ***223403** SAO LUIS R$ 1.000,00 22/08/2021
MONICA MENDES MACEDO ****05665688*** ***627783** JENIPAPO DOS VIEIRAS R$ 1.000,00 22/08/2021
ZILZA FERREIRA CONCEICAO ****05851675*** ***258163** IMPERATRIZ R$ 1.000,00 22/08/2021
NEUZA ADEUZINA MACHADO ****02816658*** ***915863** MIRINZAL R$ 1.000,00 22/08/2021
GREGORIO COSTA COELHO ****08058581*** ***817203** SAO LUIS R$ 1.000,00 22/08/2021
JOSE ALVES DA PENHA ****05334990*** ***271273** LAGO DA PEDRA R$ 1.000,00 22/08/2021
NATAL VIEIRA TEIXEIRA ****04922862*** ***956963** MATA ROMA R$ 1.000,00 22/08/2021
MARIA DE NAZARE SALUTINO DE SOUSA ****02050477*** ***807463** MATA ROMA R$ 1.000,00 22/08/2021
MARIA DOS REMEDIOS PINHEIRO TEIXEIRA ****05671598*** ***852423** SAO LUIS R$ 1.000,00 22/08/2021
CIRILO FERREIRA ****02092172*** ***063623** SAO LUIS R$ 1.000,00 22/08/2021
TEREZINHA DE JESUS FREIRE MACHADO ****03337092*** ***057373** CURURUPU R$ 1.000,00 22/08/2021
KATIA CRISTINA RIBEIRO ALMEIDA ****08709102*** ***085763** TIMBIRAS R$ 1.000,00 22/08/2021
AMBROSIO GOMES DA COSTA ****06750891*** ***185013** TIMBIRAS R$ 1.000,00 22/08/2021
FRANCISCA PAVAO FERREIRA ****09085223*** ***377013** MIRINZAL R$ 1.000,00 22/08/2021
NEWTON SILVA ****01915843*** ***035203** MIRINZAL R$ 1.000,00 22/08/2021
AURESTE MORAES DA SILVA ****06538713*** ***256633** SAO LUIS R$ 1.000,00 22/08/2021
FRANCISCA PEREIRA DA SILVA ****01515823*** ***836813** LAGO DA PEDRA R$ 1.000,00 22/08/2021
MIGUEL LINDOSO ANDRADE ****02662883*** ***921653** CAJARI R$ 1.000,00 22/08/2021
MARIA SOUSA SAMINEZ ****01933786*** ***445933** ITAPECURU MIRIM R$ 1.000,00 22/08/2021
ANTONIO RODRIGUES DA COSTA ****02720763*** ***771093** MATA ROMA R$ 1.000,00 22/08/2021
MARIA FRANCISCA DE OLIVEIRA ****09656711*** ***977503** PEDREIRAS R$ 1.000,00 22/08/2021
RAIMUNDO NONATO DA SILVA ****09210913*** ***982653** ACAILANDIA R$ 1.000,00 22/08/2021
MAURO MARTINS DE MOURA ****00555681*** ***054243** SAO JOSE DE RIBAMAR R$ 1.000,00 22/08/2021
MARIA DE NASARE DE CARVALHO SAMPAIO ****09846114*** ***389083** PACO DO LUMIAR R$ 1.000,00 22/08/2021
ANTONIO CESAR DAS CHAGAS ****09324383*** ***213023** TIMON R$ 1.000,00 22/08/2021
CACIOLINE GUIMARAES DO NASCIMENTO ****00993650*** ***458323** MATA ROMA R$ 1.000,00 22/08/2021
ROMANA BORBA FRAZAO ****03831769*** ***697753** TIMBIRAS R$ 1.000,00 22/08/2021
RONALDO DE OLIVEIRA MACIEL ****07447965*** ***780251** TIMBIRAS R$ 1.000,00 22/08/2021
LUIZ GONZAGA DA SILVA ****01546966*** ***621463** SAO LUIS R$ 1.000,00 22/08/2021
ANTONIA ALVES MARTINS ****04705739*** ***501893** TIMBIRAS R$ 1.000,00 22/08/2021
RAIMUNDO BORGES MARTINS ****08899959*** ***643833** IMPERATRIZ R$ 5.000,00 22/08/2021
EDNA MARIA DOS SANTOS SILVA ****05773614*** ***455633** ACAILANDIA R$ 5.000,00 22/08/2021
CLAUDIANE BOAS DINIZ ****01082782*** ***286943** PINHEIRO R$ 5.000,00 22/08/2021
AIRA MOURAO GARRETO ****02904642*** ***415583** BREJO R$ 5.000,00 22/08/2021
MONICA BRANDAO AROUCHE ****03081577*** ***540133** SAO JOSE DE RIBAMAR R$ 5.000,00 22/08/2021
JOAO BATISTA CORREIA GONZAGA ****02371633*** ***998703** SAO LUIS R$ 5.000,00 22/08/2021
ALIRIA JAKELINE SILVA CANTANHEDE ****08508555*** ***457013** VITORIA DO MEARIM R$ 5.000,00 22/08/2021
ELIZIANE DINIZ LOREDO DE ALENCAR ****02221633*** ***345753** SAO LUIS R$ 5.000,00 22/08/2021
ALTAIR PINTO RAPOSO ****00886448*** ***806983** ZE DOCA R$ 5.000,00 22/08/2021
FABIANA LEANDRO MOREIRA ****50031255*** ***320652** IMPERATRIZ R$ 5.000,00 22/08/2021
MARCUS VINICIUS VIEIRA GUIMARAES ****07694469*** ***229353** SAO LUIS R$ 5.000,00 22/08/2021
ANDREW JEFFERSON DE ARRUDA CRISOSTOMO ****09952027*** ***361912** SANTA INES R$ 5.000,00 22/08/2021
RAFAEL FONTENELE TRINDADE ****04619807*** ***601113** SAO LUIS R$ 5.000,00 22/08/2021
JOSE CARLOS MEDEIROS SANTANA ****06243382*** ***476633** SAO LUIS R$ 5.000,00 22/08/2021
JOSE CARVALHO ****03826866*** ***843043** SAO LUIS R$ 5.000,00 22/08/2021
MARIA DA SILVA SOUZA ****05913988*** ***805513** COELHO NETO R$ 5.000,00 22/08/2021
OSVALDO PEREIRA DE QUEIROIS ****04922998*** ***446803** SAO BERNARDO R$ 5.000,00 22/08/2021
FRANCINILDA DA COSTA ****00911874*** ***843733** CANTANHEDE R$ 5.000,00 22/08/2021
MARIA JOSE NASCIMENTO PINHEIRO ****07071135*** ***850633** PERITORO R$ 5.000,00 22/08/2021
MARIA JOSE ARAUJO SILVA ****00207686*** ***219983** SAO BERNARDO R$ 5.000,00 22/08/2021
JAMES NONATO DA SILVA ****04502479*** ***808433** SAO PEDRO DOS CRENTES R$ 10.000,00 22/08/2021
RAIMUNDO PEREIRA DO NASCIMENTO ****06101340*** ***257732** SAO LUIS R$ 10.000,00 22/08/2021
MARIA DE LOURDES DA SILVA MARTINS ****05288418*** ***586683** TIMBIRAS R$ 10.000,00 22/08/2021
LUIZ MONTEIRO LEAL ****09336827*** ***867382** IMPERATRIZ R$ 10.000,00 22/08/2021
DOMINGAS TELMA MORAES ****01136385*** ***352713** BEQUIMAO R$ 10.000,00 22/08/2021
VILSON RODRIGUES PADILHA ****06012159*** ***738583** SANTA INES R$ 10.000,00 22/08/2021
MARIA EUNICE DA SILVA LEITE ****04494833*** ***614813** IMPERATRIZ R$ 10.000,00 22/08/2021
VALDEREZ SANTOS RIBEIRO ****01717203*** ***816003** PERITORO R$ 10.000,00 22/08/2021
EDIVALDO DE ANDRADE ****01286747*** ***451942** CAPINZAL DO NORTE R$ 10.000,00 22/08/2021
JOSE ALDISIO CARNEIRO ****06638411*** ***727053** SANTA INES R$ 10.000,00 22/08/2021
ALEX OLIVEIRA MURAD ****02169270*** ***439073** SAO LUIS R$ 1.000,00 03/09/2021
MARIA LUISA SILVA ARAUJO ****02497526*** ***775303** SAO LUIS R$ 1.000,00 03/09/2021
MARLI FERREIRA ****00179717*** ***413293** SAO LUIS R$ 1.000,00 03/09/2021
MONIQUE DOS SANTOS CAMPOS REIS ****09422866*** ***440293** SAO LUIS R$ 1.000,00 03/09/2021
SANCAO DO NASCIMENTO REGO ****06473189*** ***070033** SAO LUIS R$ 1.000,00 03/09/2021
MARIA DO CARMO CASTRO COSTA ****06432661*** ***206923** SAO LUIS R$ 1.000,00 03/09/2021
UBERLANDIA CASTRO ****08039258*** ***170033** SAO LUIS R$ 1.000,00 03/09/2021
LAURA FARIAS CLEMENTE SILVA ****02997509*** ***332403** TIMON R$ 1.000,00 03/09/2021
MARISE FERREIRA ALVES ****01324823*** ***422067** SAO LUIS R$ 1.000,00 03/09/2021
MARIA DAS DORES FROTA SOARES ****03154423*** ***288983** SAO LUIS R$ 1.000,00 03/09/2021
LEONIDA COSTA DOS SANTOS ****07631782*** ***420613** SAO LUIS R$ 1.000,00 03/09/2021
JOSE DE MORAIS SOUSA ****02037188*** ***725523** TIMON R$ 1.000,00 03/09/2021
DIRCELENE AGUIAR DOS SANTOS ****08486558*** ***209453** SAO LUIS R$ 1.000,00 03/09/2021
JOSE DAVID DE ASSUNCAO ****05279890*** ***629903** TIMON R$ 1.000,00 03/09/2021
ELIAS MATIAS PINHEIRO ****05175324*** ***236393** TIMON R$ 1.000,00 03/09/2021
JAMILLE BAYMA AMORA ****00656204*** ***083453** SAO LUIS R$ 1.000,00 03/09/2021
MARIA DE JESUS CASTELO BRANCO FREIRE ****01214547*** ***349253** SAO LUIS R$ 1.000,00 03/09/2021
CARMELITA MARIA DA CONCEICAO OLIVEIRA ****09710634*** ***221493** TIMON R$ 1.000,00 03/09/2021
ANA CRISTINA LEVY FERREIRA ****06833364*** ***477003** SAO JOSE DE RIBAMAR R$ 1.000,00 03/09/2021
MANOEL CASIMIRO DOS SANTOS ****03269072*** ***793303** SAO LUIS R$ 1.000,00 03/09/2021
SONIA MARIA LIMA MOTA ****02014111*** ***882483** SAO LUIS R$ 1.000,00 03/09/2021
SIMIAO MATOS PIRES ****05544328*** ***599273** SAO LUIS R$ 1.000,00 03/09/2021
RITA LOPES FERREIRA ****08084795*** ***318113** IMPERATRIZ R$ 1.000,00 03/09/2021
JOSE RIBAMAR ARAUJO DA FONSECA ****00412545*** ***178173** SAO LUIS R$ 1.000,00 03/09/2021
JOSE BALBINO TEIXEIRA ALVES ****02187177*** ***379043** SAO LUIS R$ 1.000,00 03/09/2021
FRANCY GLORIA SILVA ABREU ****09081426*** ***263603** SAO LUIS R$ 1.000,00 03/09/2021
FRANCISCA DAS CHAGAS DOS SANTOS ****02269717*** ***014592** SAO LUIS R$ 1.000,00 03/09/2021
SELENEIDE MARIA RIBEIRO ****09613819*** ***200333** SAO LUIS R$ 1.000,00 03/09/2021
CLEUMA MARIA SOARES GOIS ****08741647*** ***831233** CAJAPIO R$ 1.000,00 03/09/2021
CRISTOVAO DOS SANTOS CARVALHO ****08884528*** ***363073** CAJAPIO R$ 1.000,00 03/09/2021
ROSIANE BRAGA MAIA ****01898039*** ***647273** SAO LUIS R$ 1.000,00 03/09/2021
RODRIGO DE BARROS BEZERRA ****09660831*** ***095603** SAO LUIS R$ 1.000,00 03/09/2021
ADEMAR DE JESUS RODRIGUES ****03704330*** ***575323** SAO LUIS R$ 1.000,00 03/09/2021
VALDIRENE DA CONCEICAO DOS SANTOS ****00247364*** ***657943** SAO LUIS R$ 1.000,00 03/09/2021
CECILIA MORAES MELONIO ****05432915*** ***400543** CAXIAS R$ 1.000,00 03/09/2021
MARIA LUZIA OLIVEIRA DE CASTRO ****01220606*** ***760373** SAO LUIS R$ 1.000,00 03/09/2021
TANIA REGINA SOARES DE SOUSA ****08020694*** ***614563** SAO LUIS R$ 1.000,00 03/09/2021
MARIA DOS REMEDIOS SANTOS DA ROCHA ****04063283*** ***715933** SAO LUIS R$ 1.000,00 03/09/2021
SONIA REGINA PIMENTA SERRA ****01655274*** ***415243** SAO LUIS R$ 1.000,00 03/09/2021
JOSE DE RIBAMAR DORNELES VIANA ****04580851*** ***447263** SAO LUIS R$ 1.000,00 03/09/2021
BENEDITA DOS SANTOS MACEDO ****04897161*** ***065613** SAO LUIS R$ 1.000,00 03/09/2021
IZAU COSTA ****03776955*** ***039073** CAJAPIO R$ 1.000,00 03/09/2021
JOAO DA CRUZ MOTA MORAES ****02420187*** ***871803** SAO LUIS R$ 1.000,00 03/09/2021
FRANCISCO BRANDAO LIMA ****01310435*** ***491193** SAO LUIS R$ 1.000,00 03/09/2021
JOSE RAIMUNDO COELHO AGUIAR ****02942059*** ***248743** PACO DO LUMIAR R$ 1.000,00 03/09/2021
REJANE HOLANDA DA SILVEIRA ****06355409*** ***486693** SAO LUIS R$ 1.000,00 03/09/2021
MARIA DE NAZARE FERREIRA DE SOUSA ****00243207*** ***597293** IMPERATRIZ R$ 1.000,00 03/09/2021
ELIETE MORAES SOUSA ****05569183*** ***682483** IMPERATRIZ R$ 1.000,00 03/09/2021
JANILSON CARVALHO DOS ANJOS ****07458796*** ***463773** CAJAPIO R$ 1.000,00 03/09/2021
JOAO AUGUSTO MARTINS ****03022348*** ***580583** SAO LUIS R$ 1.000,00 03/09/2021
MILTON ANTUNES RAMOS ****00092127*** ***451162** SAO LUIS R$ 1.000,00 03/09/2021
MARIA JULIA VIEIRA RODRIGUES ****04730053*** ***907253** CAJAPIO R$ 1.000,00 03/09/2021
SIMPLICIO RODRIGUES ****00673083*** ***199673** SAO LUIS R$ 1.000,00 03/09/2021
JOSE INACIO CAMARA FONSECA ****03640912*** ***450893** CAJAPIO R$ 1.000,00 03/09/2021
MARIA ZILMA BRANDAO DIAS ****08611916*** ***017743** CODO R$ 1.000,00 03/09/2021
MARIA DAS MERCES AROUCHE ****08282027*** ***410473** SAO LUIS R$ 1.000,00 03/09/2021
MARIA JOSE RAMOS COSTA DINIZ ****02637745*** ***428363** SAO VICENTE FERRER R$ 1.000,00 03/09/2021
IDELMIRA SERRA COELHO ****01539390*** ***739443** CAJAPIO R$ 1.000,00 03/09/2021
JORGE ROBERTO DE SOUSA MORAIS ****06670637*** ***762463** SAO LUIS R$ 1.000,00 03/09/2021
ANA MARIA AMARAL ASSUNCAO ****03629346*** ***767383** CAJAPIO R$ 1.000,00 03/09/2021
ALDA MARIA FRAZAO DOS ANJOS PEREIRA ****08141468*** ***363903** SAO LUIS R$ 1.000,00 03/09/2021
MARIA DAS MERCES GAMA PAOSINHO ****01992159*** ***437853** SAO LUIS R$ 1.000,00 03/09/2021
LUIS ANTONIO SEREJO PINTO ****08557028*** ***367403** SAO LUIS R$ 1.000,00 03/09/2021
RAIMUNDA ORTELINA DE OLIVEIRA ****04800254*** ***848643** SAO LUIS R$ 1.000,00 03/09/2021
CELIA REGINA RODRIGUES PEREIRA ****07581891*** ***269253** SAO VICENTE FERRER R$ 1.000,00 03/09/2021
ORLANDO ABRANTES PEREIRA ****05110851*** ***122783** SAO LUIS R$ 1.000,00 03/09/2021
HELENA SENA MORAIS ****04562657*** ***526573** COROATA R$ 1.000,00 03/09/2021
JOSE DE RIBAMAR MENDES ****03988701*** ***354783** SAO LUIS R$ 1.000,00 03/09/2021
SELMA RIBEIRO MENDONCA ****03865214*** ***658203** SAO LUIS R$ 1.000,00 03/09/2021
RAIMUNDA PEREIRA CUTRIM ****05310444*** ***172383** SAO LUIS R$ 1.000,00 03/09/2021
JAILSON MORAES COSTA ****03572393*** ***239403** CAJAPIO R$ 1.000,00 03/09/2021
MARIA IZABEL SOARES ASEVEDO ****08700035*** ***865853** SAO LUIS R$ 1.000,00 03/09/2021
ANTONIO LUIS CARDOSO PINHEIRO ****06423972*** ***630023** CAJAPIO R$ 1.000,00 03/09/2021
LUCIETE COSTA ALMEIDA ****00981569*** ***828463** SAO LUIS R$ 1.000,00 03/09/2021
GISLANE SILVA GOMES ****06069145*** ***985753** IMPERATRIZ R$ 1.000,00 03/09/2021
ROSA MARIA CAMPOS RODRIGUES ****08191215*** ***560813** SAO LUIS R$ 1.000,00 03/09/2021
RUBENVALDO ASSUNCAO BARROS ****07310839*** ***952253** PACO DO LUMIAR R$ 1.000,00 03/09/2021
PEDRO NASCIMENTO DOS SANTOS ****04223483*** ***948563** SAO LUIS R$ 1.000,00 03/09/2021
MARIA MAGNOLIA GOMES VIEIRA ****02086273*** ***535953** SAO LUIS R$ 1.000,00 03/09/2021
JOSIEL MAMEDIO DO NASCIMENTO ****02132668*** ***127413** IMPERATRIZ R$ 1.000,00 03/09/2021
MARIA DO AMPARO ALBUQUERQUE DE ARAUJO ****00081205*** ***462723** IMPERATRIZ R$ 1.000,00 03/09/2021
JONELMA SILVA ****07759126*** ***265283** SAO LUIS R$ 1.000,00 03/09/2021
JULIA GRACIELA PINTO SILVA ****02991630*** ***462793** CAJAPIO R$ 1.000,00 03/09/2021
WELITON SOUZA TEIXEIRA ****04718113*** ***835403** CAJAPIO R$ 1.000,00 03/09/2021
MARIA NILZA VIEIRA DOS SANTOS ****02234296*** ***391133** SAO LUIS R$ 1.000,00 03/09/2021
JOAO LUSIO DINIZ ****07801557*** ***985132** SAO LUIS R$ 1.000,00 03/09/2021
MARIA DO SOCORRO NUNES FARIAS ****04620440*** ***732483** SAO LUIS R$ 1.000,00 03/09/2021
JOSE DO CARMO DE JESUS DOS SANTOS FONSECA ****07379117*** ***256683** CAJAPIO R$ 1.000,00 03/09/2021
EDELSON DA SILVA CAMPOS ****00005356*** ***095713** SAO LUIS R$ 1.000,00 03/09/2021
AGOSTINHA CARVALHO ****00720254*** ***307473** PACO DO LUMIAR R$ 1.000,00 03/09/2021
MARIA DAS GRACAS LIMA NEGREIROS ****04565553*** ***665913** IMPERATRIZ R$ 1.000,00 03/09/2021
JAILSON DE JESUS DURAES SA ****03944346*** ***966013** CAJAPIO R$ 1.000,00 03/09/2021
HILDENE COSTA PEREIRA ****05465370*** ***313603** SAO LUIS R$ 1.000,00 03/09/2021
MARIA COSTA RODRIGUES ****08719531*** ***590773** SAO LUIS R$ 1.000,00 03/09/2021
ANA MARIA SILVA SANTOS ****01147179*** ***833273** SAO LUIS R$ 1.000,00 03/09/2021
LOURISMAR BEZERRA DE SOUSA ****01618021*** ***929203** IMPERATRIZ R$ 1.000,00 03/09/2021
MARIA BERNADETE ARAUJO ****09892739*** ***273633** SAO LUIS R$ 1.000,00 03/09/2021
NELSON PINHEIRO ROSA SOBRINHO ****06454804*** ***858403** SAO LUIS R$ 1.000,00 03/09/2021
ROSENILDE DOS SANTOS FONSECA ****01379619*** ***568353** CAJAPIO R$ 1.000,00 03/09/2021
ANTONIA FRANCISCA SALES ****09707269*** ***954003** SAO LUIS R$ 1.000,00 03/09/2021
MIGUEL DO SOCORRO VIEIRA ANDRADE ****05210974*** ***782033** BALSAS R$ 5.000,00 03/09/2021
SIZALTINA LIMA BARBOSA ****00213719*** ***824523** IMPERATRIZ R$ 5.000,00 03/09/2021
RAIMUNDO GALVAO ****02266702*** ***614513** IMPERATRIZ R$ 5.000,00 03/09/2021
EULILA LIMA DA COSTA ****00439094*** ***068122** IMPERATRIZ R$ 5.000,00 03/09/2021
JOSE ALVES PORTO ****00366024*** ***741893** TASSO FRAGOSO R$ 5.000,00 03/09/2021
JOAO BATISTA DE SOUSA LOPES ****03973081*** s/n SAO BENEDITO DO RIO PRETO R$ 5.000,00 03/09/2021
ANEILDO AMARAL DA HORA ****00261167*** ***317293** SANTA HELENA R$ 5.000,00 03/09/2021
VERA LUCIA MACIEL SILVA ****04526373*** ***453153** SAO LUIS R$ 5.000,00 03/09/2021
JOCI OLIVEIRA BARREIRA ****09616340*** ***108351** BALSAS R$ 5.000,00 03/09/2021
RAIMUNDO DA CONCEICAO ****05342881*** ***463083** ITAIPAVA DO GRAJAU R$ 5.000,00 03/09/2021
RAIMUNDO ANTONIO PEREIRA BARBOSA ****04743096*** ***503083** BACABAL R$ 5.000,00 03/09/2021
ILSAMAR JESUINO DA SILVA ****04441517*** ***080193** CODO R$ 5.000,00 03/09/2021
JESUSLENE VIEIRA DOS SANTOS ****00889289*** ***264543** IMPERATRIZ R$ 5.000,00 03/09/2021
MARIA TEREZA SOUZA MESQUITA ****05132507*** ***026783** PINHEIRO R$ 5.000,00 03/09/2021
ANTONIO DA SILVA DE ASSIS ****08848136*** ***572963** ARAGUANA R$ 5.000,00 03/09/2021
RAIMUNDO MENDONCA DE LIMA ****01935886*** ***340203** IMPERATRIZ R$ 5.000,00 03/09/2021
ETELVINA DE JESUS PEREIRA ****03321422*** ***959743** SAO LUIS R$ 5.000,00 03/09/2021
ROSA LUCIA DE CARVALHO SALES ****00783454*** ***731463** SAO BERNARDO R$ 5.000,00 03/09/2021
POLIANA CONCEICAO E SILVA ****08674967*** ***683593** BURITIRANA R$ 5.000,00 03/09/2021
JOSE RIBAMAR MEIRELES ABREU ****07954870*** ***378603** SAO LUIS R$ 5.000,00 03/09/2021
FLAVIANO MENDES BARBOSA ****06511448*** ***645723** PINHEIRO R$ 5.000,00 03/09/2021
JOSE JOAQUIM MENDES ALVES ****07438470*** ***510553** PINHEIRO R$ 5.000,00 03/09/2021
JOSE ADELSON RODRIGUES DA SILVA ****01548551*** ***416232** IMPERATRIZ R$ 5.000,00 03/09/2021
ODALICY SILVA ALMEIDA ****02382221*** ***207613** IMPERATRIZ R$ 5.000,00 03/09/2021
QUEROBINA MACEDO DE SALES ****09136323*** ***886893** BALSAS R$ 5.000,00 03/09/2021
MARIA DIVINA BANDEIRA DO CARMO ****06947459*** ***747913** RIBAMAR FIQUENE R$ 5.000,00 03/09/2021
EXPEDITO ABRANTES DE OLIVEIRA ****06957349*** ***270663** IMPERATRIZ R$ 5.000,00 03/09/2021
MARLI DA SILVA ARAUJO ****01868781*** ***067713** IMPERATRIZ R$ 5.000,00 03/09/2021
JOSE DO CARMO LOPES DOS SANTOS ****09675084*** ***869253** BALSAS R$ 5.000,00 03/09/2021
JOSE ODETE PEREIRA DA SILVA ****06483100*** ***555303** BALSAS R$ 5.000,00 03/09/2021
ANTONIO MARTINS DOS SANTOS ****04603910*** ***191113** GODOFREDO VIANA R$ 10.000,00 03/09/2021
JOCILENE MARTINS DA ROCHA ****06439559*** ***344363** PIRAPEMAS R$ 10.000,00 03/09/2021
SUELMA MAIA SILVA ****03149594*** ***464573** SAO LUIS R$ 10.000,00 03/09/2021
MARIA LELIS DA SILVA SOUSA ****09036723*** ***905693** MATOES DO NORTE R$ 10.000,00 03/09/2021
LEANE DE JESUS COSTA ANDRADE FRASAO ****09413501*** ***627673** SAO LUIS R$ 10.000,00 03/09/2021
MARIA DO SOCORRO MARTINS LIMA ****06940940*** ***028743** PACO DO LUMIAR R$ 10.000,00 03/09/2021
MANOEL RAMOS SANTOS ****05683843*** ***528753** SAO LUIS R$ 10.000,00 03/09/2021
ORLANDO GOMES DOS SANTOS ****01796616*** ***242023** ARAGUANA R$ 10.000,00 03/09/2021
JOSE MARIA DOS SANTOS ****08753527*** ***696023** CAPINZAL DO NORTE R$ 10.000,00 03/09/2021
DELAYNE RAQUEL FERREIRA CARVALHO ****09534236*** ***726483** SAO BENTO R$ 10.000,00 03/09/2021
AILTON CIRQUEIRA GUAJAJARA ****00310134*** ***783843** MONTES ALTOS R$ 1.000,00 17/09/2021
DORIEL CRATEHHU KRIKATI ****05132514*** ***026573** MONTES ALTOS R$ 1.000,00 17/09/2021
CESARIO PYHTRY KRIKATI ****08315298*** ***954293** MONTES ALTOS R$ 1.000,00 17/09/2021
KARLA YASMIM COSTA GASPAR ****02089172*** ***247573** SAO LUIS R$ 1.000,00 17/09/2021
ELENILDE DE MARIA LOBATO RODRIGUES ****00472400*** ***438353** SAO LUIS R$ 1.000,00 17/09/2021
FAUSTINO RODRIGUES ****09519437*** ***098103** SAO LUIS R$ 1.000,00 17/09/2021
MARISTELA DA SILVA SOARES ****09493190*** ***362203** DOM PEDRO R$ 1.000,00 17/09/2021
JOSE DE RIBAMAR MORAIS SERRA ****03648381*** ***878183** VIANA R$ 1.000,00 17/09/2021
OSIMO FERREIRA MORGADO ****00481901*** ***123863** SANTA INES R$ 1.000,00 17/09/2021
AMELIA ALMEIDA PAZ ****08305691*** ***711333** LAJEADO NOVO R$ 1.000,00 17/09/2021
JOVITA FERREIRA ARAUJO ****03825442*** ***801713** IMPERATRIZ R$ 1.000,00 17/09/2021
RAIMUNDA PEIXOTO AMORIM ****07489614*** ***398643** PINHEIRO R$ 1.000,00 17/09/2021
MARIA DO SOCORRO DOS SANTOS ****09793436*** ***917463** AFONSO CUNHA R$ 1.000,00 17/09/2021
ANTONIA PEREIRA DA SILVA ****03138758*** ***518353** PASSAGEM FRANCA R$ 1.000,00 17/09/2021
RAIMUNDO SOUSA ****07710419*** ***673813** CAXIAS R$ 1.000,00 17/09/2021
MARIA DA GRACA RODRIGUES DE LIMA ****02499434*** ***589713** TUTOIA R$ 1.000,00 17/09/2021
RAIMUNDA MARTINS POLVOAS ****02471227*** ***668003** CANTANHEDE R$ 1.000,00 17/09/2021
FRANCISCO DAS CHAGAS FERNANDES DAMASCENO ****00914090*** s/n TUTOIA R$ 1.000,00 17/09/2021
MARIA DE JESUS RIOS DE SOUSA ****00034037*** ***411793** CODO R$ 1.000,00 17/09/2021
JULIA ALEXANDRE OLIVEIRA ****04773363*** ***768903** CODO R$ 1.000,00 17/09/2021
VICENTE OLIVEIRA NETO ****07390649*** ***869173** LAGO VERDE R$ 1.000,00 17/09/2021
JOSEFA BARBALHO DA SILVA ****04956058*** ***743763** SAO JOAO DOS PATOS R$ 1.000,00 17/09/2021
AUGUSTA LUSIA LIRA ****01269831*** ***715583** PARNARAMA R$ 1.000,00 17/09/2021
RAIMUNDO NONATO DA SILVA ****04850116*** ***599043** PRESIDENTE MEDICI R$ 1.000,00 17/09/2021
JOSE CARLOS CLARINDO VIEIRA ****00161355*** ***413863** BACABAL R$ 1.000,00 17/09/2021
ILQUIAS PIMENTEL MOURA ****09495517*** ***251123** PAULINO NEVES R$ 1.000,00 17/09/2021
AUGUSTO CROWAREH KRIKATI ****08385569*** ***723253** MONTES ALTOS R$ 1.000,00 17/09/2021
ALBINO BARROS CIRQUEIRA NETO ****03115861*** ***927053** MONTES ALTOS R$ 1.000,00 17/09/2021
VILMA TIIRCWYJ KRIKATI ****03901776*** ***177843** SITIO NOVO R$ 1.000,00 17/09/2021
LINDA JYTTYHC KRIKATI ****03081028*** ***992513** MONTES ALTOS R$ 1.000,00 17/09/2021
ROMARIO CAXEHIM KRIKATI ****09436869*** ***283213** MONTES ALTOS R$ 1.000,00 17/09/2021
TATIANE NAHSAN PALUMBO DE OLIVEIRA ****04465700*** ***624878** TUTOIA R$ 1.000,00 17/09/2021
MANOEL VIANA ****09358498*** ***411643** CODO R$ 1.000,00 17/09/2021
FRANCISCA BATISTA DE ALENCAR ****05878718*** ***242023** DOM PEDRO R$ 1.000,00 17/09/2021
FRANCISCO VITAL SIQUEIRA ****07108791*** ***107022** ACAILANDIA R$ 1.000,00 17/09/2021
MARIA DE JESUS FERREIRA FONSECA ****08277188*** ***472243** PRIMEIRA CRUZ R$ 1.000,00 17/09/2021
WALES BELLO DE SOUSA CARMO ****05861538*** ***631953** FORTUNA R$ 1.000,00 17/09/2021
MARIA PINTO ****07605341*** ***511503** CODO R$ 1.000,00 17/09/2021
MARIA FERREIRA TORRES ****01535420*** ***174543** COELHO NETO R$ 1.000,00 17/09/2021
JOANA QUEIROZ E SILVA ****09204527*** ***044493** CODO R$ 1.000,00 17/09/2021
RITA DE CASSIA SILVA SOUSA ****04127999*** s/n CODO R$ 1.000,00 17/09/2021
FRANCILEIDE RODRIGUES DE SOUZA ****01469049*** ***778273** LAGO DA PEDRA R$ 1.000,00 17/09/2021
ANA CLARICE COSTA ****03827864*** ***511683** SAO LUIS R$ 1.000,00 17/09/2021
MANOEL SILVESTRE SILVA BOGEA ****02137435*** ***195733** SAO LUIS R$ 1.000,00 17/09/2021
ANTONIO CONCEICAO SILVA ****09123658*** ***314773** DAVINOPOLIS R$ 1.000,00 17/09/2021
ADAO DE JESUS COUTINHO BANDEIRA ****00935679*** ***641113** LAJEADO NOVO R$ 1.000,00 17/09/2021
MARIA DE LOURDES BARROSO ****06789617*** ***616693** CODO R$ 1.000,00 17/09/2021
JOSE DO ESPIRITO SANTO MAGALHAES ****04144191*** s/n CODO R$ 1.000,00 17/09/2021
ROSIMEIRE DA SILVA COSTA ****04602025*** ***358703** FORTALEZA DOS NOGUEIRAS R$ 1.000,00 17/09/2021
RAIMUNDO RODRIGUES DO NASCIMENTO ****07869621*** ***262333** TRIZIDELA DO VALE R$ 1.000,00 17/09/2021
MARIA USSA DE SOUZA ****09264197*** ***785503** ITINGA DO MARANHAO R$ 1.000,00 17/09/2021
EUFRAUSINA GONCALVES ****00053448*** ***075373** CODO R$ 1.000,00 17/09/2021
WALYSON GUSTAVO SILVA DE FREITAS ****08728657*** ***460433** COLINAS R$ 1.000,00 17/09/2021
ODONTINO ANTONIO LOPES ****09046315*** ***161553** TASSO FRAGOSO R$ 1.000,00 17/09/2021
MARIA JULIA ALVES DOS SANTOS PACHECO ****03007615*** ***583353** COLINAS R$ 1.000,00 17/09/2021
RAFIZA KELLY SILVA COELHO ****04188523*** ***318713** COLINAS R$ 1.000,00 17/09/2021
NILDETE MARIA DA CONCEICAO ****04856634*** ***193033** COLINAS R$ 1.000,00 17/09/2021
MARIA DE JESUS ALVES DA SILVA ****01575689*** ***762113** COLINAS R$ 1.000,00 17/09/2021
HUGO ANUNCIATO BARROS DA SILVA ****09376102*** ***865633** COLINAS R$ 1.000,00 17/09/2021
MARILENE PEREIRA FERREIRA ****07385632*** ***830223** COLINAS R$ 1.000,00 17/09/2021
ELINA VELOSO DA COSTA ****04276607*** ***724983** TIMON R$ 1.000,00 17/09/2021
LEONETE MONDEGO ****00568942*** ***844843** PINHEIRO R$ 1.000,00 17/09/2021
FRANCISCA DA CONCEICAO SILVA ****02231695*** ***111083** CARUTAPERA R$ 1.000,00 17/09/2021
JACINTA MENDES DA SILVA OLIVEIRA ****02780272*** ***351873** TIMON R$ 1.000,00 17/09/2021
LEONARDA DE SOUSA DELGADO ****07482501*** ***810143** CODO R$ 1.000,00 17/09/2021
ODILA GRACIANA RIBEIRO ****03026701*** ***766263** PINHEIRO R$ 1.000,00 17/09/2021
HIGOR OLIVEIRA ANDRADE ****02969095*** ***215233** BALSAS R$ 1.000,00 17/09/2021
NADJA CARTAGENES MIRANDA ****09819412*** ***018283** SAO LUIS R$ 1.000,00 17/09/2021
IBRAHIM DUAILIBE ****00825253*** ***234733** CODO R$ 1.000,00 17/09/2021
MARCELINA SODRE MENDES ****03084351*** ***496533** PALMEIRANDIA R$ 1.000,00 17/09/2021
MARIA DO SOCORRO DOS REIS PEREIRA ****07902793*** ***339703** SAO JOAO DOS PATOS R$ 1.000,00 17/09/2021
MARIA DA CONCEICAO SILVA ****00143559*** ***957323** GOVERNADOR ARCHER R$ 1.000,00 17/09/2021
IDA PINTO MOREIRA ****02763796*** ***169093** BALSAS R$ 1.000,00 17/09/2021
MADALENA DOS SANTOS SOUSA ****03129178*** ***490683** TURIACU R$ 1.000,00 17/09/2021
RAIMUNDA PEREIRA DE SOUSA ****00962918*** s/n CAXIAS R$ 1.000,00 17/09/2021
JESSICA KARLA DA SILVA MUNIZ ****00577976*** ***652083** SANTA INES R$ 1.000,00 17/09/2021
JOSE DO CARMO GONCALVES ****08984396*** ***920623** VIANA R$ 1.000,00 17/09/2021
ALEXANDRINA SILVA ****07039710*** ***032253** TURIACU R$ 1.000,00 17/09/2021
MAGILA MARIA SILVA PEREIRA ****02768703*** ***321903** SANTA INES R$ 1.000,00 17/09/2021
LARISSA MAGALHAES COUTO ****08887864*** ***277803** SANTA INES R$ 1.000,00 17/09/2021
VANUZA SILVA E SILVA ****02598052*** ***620063** SANTA INES R$ 1.000,00 17/09/2021
WANDEANE LINDOSO BARROS ****07427626*** ***098573** PINDARE-MIRIM R$ 1.000,00 17/09/2021
JOAO DOS SANTOS ****03235378*** s/n SANTA INES R$ 1.000,00 17/09/2021
SEVERIANA SILVA CUNHA ****01581732*** ***920633** SAO LUIS R$ 1.000,00 17/09/2021
NATIELE MATOS MORAIS ****05086344*** ***766873** IGARAPE DO MEIO R$ 1.000,00 17/09/2021
MARIA LUCIA RIBEIRO ****03059144*** ***386953** SAO LUIS R$ 1.000,00 17/09/2021
MARIA CONSTANCIA QUADRO ****07316990*** ***835523** VIANA R$ 1.000,00 17/09/2021
SEVERINA SOARES BARBOSA ****09029300*** ***975033** SAO LUIS R$ 1.000,00 17/09/2021
ANDRE AVELINO PEREIRA BARROS ****02679087*** ***717597** SAO LUIS R$ 1.000,00 17/09/2021
MARIA DOS ANJOS DE SOUZA PIRES ****03138162*** ***013083** ALTO PARNAIBA R$ 1.000,00 17/09/2021
MARIA DA PAIXAO FIDELES ****09922270*** ***094233** CAXIAS R$ 1.000,00 17/09/2021
RAIMUNDO NONATO DOS SANTOS ****05691821*** ***185873** ALTO ALEGRE DO PINDARE R$ 1.000,00 17/09/2021
MARIA DA PAIXAO PEREIRA DA MATA ****00554349*** ***749203** PRESIDENTE DUTRA R$ 1.000,00 17/09/2021
MARIA ONEDES GOMES GUAJAJARA ****02115634*** ***819223** GRAJAU R$ 1.000,00 17/09/2021
RAIMUNDA MARQUES PINTO ****11695110*** s/n SAO LUIS R$ 1.000,00 17/09/2021
JANI FONSECA LOPES ****05832706*** ***232903** SAO LUIS R$ 1.000,00 17/09/2021
TERESINHA DE JESUS TRINDADE CASTRO ****01048196*** ***566033** CAXIAS R$ 1.000,00 17/09/2021
MARIA DA CONCEICAO OLIVEIRA ****09463674*** ***566943** PACO DO LUMIAR R$ 1.000,00 17/09/2021
MESSIAS GONCALVES DA CONCEICAO ****07274359*** ***220843** SANTA INES R$ 1.000,00 17/09/2021
JULIA MARIA DE OLIVEIRA ****05871896*** ***572603** ALTO ALEGRE DO PINDARE R$ 1.000,00 17/09/2021
MARCOS ARAUJO ALMEIDA FILHO ****08666953*** ***838003** MIRINZAL R$ 5.000,00 17/09/2021
JOSE RIBAMAR SILVA DE SOUZA ****00843035*** ***319943** BARREIRINHAS R$ 5.000,00 17/09/2021
EDNALDO SOUZA OLIVEIRA ****08425732*** ***464773** CHAPADINHA R$ 5.000,00 17/09/2021
SILVANA SILVA GOMES ****05598292*** ***807833** PACO DO LUMIAR R$ 5.000,00 17/09/2021
ANTONIA DE LIMA SOUZA ****06375328*** ***816583** JENIPAPO DOS VIEIRAS R$ 5.000,00 17/09/2021
MARILENE DA SILVA SOUZA ****05001631*** ***537933** SAO JOSE DOS BASILIOS R$ 5.000,00 17/09/2021
CARLOS RENAN PEREIRA LOBO ****02786666*** ***172093** BARREIRINHAS R$ 5.000,00 17/09/2021
RAIMUNDO SILVA LIMA ****03920067*** ***126313** BARREIRINHAS R$ 5.000,00 17/09/2021
FRANCISCO DAS CHAGAS DA COSTA BARROS ****09413546*** ***209393** BARREIRINHAS R$ 5.000,00 17/09/2021
MARCELO DE JESUS ARAUJO SOARES ****02173902*** ***015653** BACURITUBA R$ 5.000,00 17/09/2021
ANA MARIA BASSON ****08946311*** ***972083** PACO DO LUMIAR R$ 5.000,00 17/09/2021
ANDRELINA ROSA SILVA RIBEIRO ****02725407*** ***366993** MATOES R$ 5.000,00 17/09/2021
MOISES VALE DOS SANTOS ****04770254*** ***690503** BARREIRINHAS R$ 5.000,00 17/09/2021
ARGEL SILVA BARROS ****00267739*** ***092443** BACURITUBA R$ 5.000,00 17/09/2021
NURIA RAFAELLA DE MESQUITA ALVES FERREIRA ****05579195*** ***747383** PIRAPEMAS R$ 5.000,00 17/09/2021
MARIA DO SOCORRO GOMES DO NASCIMENTO ****08192114*** ***259773** BARAO DE GRAJAU R$ 5.000,00 17/09/2021
JACKELINE DIAMANTINA ****04196887*** ***222673** NINA RODRIGUES R$ 5.000,00 17/09/2021
VALDEIR BORGES DOS SANTOS ****03990072*** ***848353** SAO LUIS R$ 5.000,00 17/09/2021
GETULIO VITORINO DE ASSUNCAO JUNIOR ****00716152*** ***510913** SAO LUIS R$ 5.000,00 17/09/2021
MARIA ROSILENE DA CONCEICAO PEREIRA DA SILVA ****07446609*** ***548013** PACO DO LUMIAR R$ 5.000,00 17/09/2021
VALTER HENRIQUE DE AZEVEDO ****03760119*** ***600893** BARAO DE GRAJAU R$ 5.000,00 17/09/2021
ADEILCE PINHEIRO COSTA ****03879635*** ***064423** MIRINZAL R$ 5.000,00 17/09/2021
GENIR ALVES PEREIRA ****01473858*** ***197073** PACO DO LUMIAR R$ 5.000,00 17/09/2021
MARGARETE DE JESUS LOPES NUNES COSTA ****00354424*** ***625133** BARREIRINHAS R$ 5.000,00 17/09/2021
ESTEFANIO SOUZA CASTRO ****03590949*** ***979393** BACABAL R$ 5.000,00 17/09/2021
CLAUDIANA PINHEIRO BARBOSA ****05038183*** ***741247** MIRINZAL R$ 5.000,00 17/09/2021
RAFAEL BELFORT SANTOS ****09416287*** ***555493** BACURITUBA R$ 5.000,00 17/09/2021
CLAUDIA REGINA DE CALDAS DA SILVA ****04959998*** ***177483** SAO LUIS R$ 5.000,00 17/09/2021
PEDRO ALMEIDA DA SILVA ****03797502*** ***760803** BARAO DE GRAJAU R$ 5.000,00 17/09/2021
ANA ROSA MOSCOSO LIMA ****05778335*** ***721083** TURIACU R$ 5.000,00 17/09/2021
ERMINA SANTOS ALMEIDA ****06160716*** ***964413** ACAILANDIA R$ 10.000,00 17/09/2021
ACACIO EUGENIO DOS SANTOS ****03464925*** ***765583** SAO LUIS R$ 10.000,00 17/09/2021
MARIA DA GRACA SANTOS ****00126426*** ***524823** SAO LUIS R$ 10.000,00 17/09/2021
MAELITON GLAUCIO DIAS SILVA ****09591497*** ***436263** ZE DOCA R$ 10.000,00 17/09/2021
MAURICIO MENDES DE CARVALHO ****08512908*** ***597783** CAXIAS R$ 10.000,00 17/09/2021
RAIMUNDA NONATA RODRIGUES ARAUJO ****03184256*** ***759593** SATUBINHA R$ 10.000,00 17/09/2021
MARIA IVELTA DE SOUSA COSTA ****01443500*** ***791693** IMPERATRIZ R$ 10.000,00 17/09/2021
BERNARDETH COSTA CORREA ****09604986*** ***939503** SAO LUIS R$ 10.000,00 17/09/2021
VANDEILSON PEREIRA DE SOUSA ****05506730*** ***210253** JOSELANDIA R$ 10.000,00 17/09/2021
EDISON RIBEIRO VIANA ****01223938*** ***103093** IMPERATRIZ R$ 10.000,00 17/09/2021
MARIA DAS GRACAS COSTA DA LUZ ****03246982*** ***533923** MIRINZAL R$ 1.000,00 01/10/2021
AULEANE BOAS ****07040187*** ***942243** ALCANTARA R$ 1.000,00 01/10/2021
CARLOS ALBERTO LEMOS ****08103837*** ***399003** ALCANTARA R$ 1.000,00 01/10/2021
ALICE ALVARES NOGUEIRA ****06948768*** ***843513** BEQUIMAO R$ 1.000,00 01/10/2021
ALDENORA DE JESUS CANTANHEDE ****06047729*** ***149543** ALCANTARA R$ 1.000,00 01/10/2021
MARINETE DOS SANTOS DE JESUS ****01429772*** ***645603** BACURI R$ 1.000,00 01/10/2021
MARIA DE LOURDES SOUSA ****01348911*** ***577023** ITAPECURU MIRIM R$ 1.000,00 01/10/2021
DEUSANIRA DE FATIMA SA ****08128033*** ***127243** SAO LUIS R$ 1.000,00 01/10/2021
JURACILDA DE JESUS SOUSA ****07321560*** ***264493** BACURI R$ 1.000,00 01/10/2021
JOAO CARLOS CARDOSO ****09709067*** ***857813** ITAPECURU MIRIM R$ 1.000,00 01/10/2021
MARTA JANETE PEREIRA ****00693945*** ***138463** ALCANTARA R$ 1.000,00 01/10/2021
LUCIA MARCIA OLIVEIRA MARINHO ****07770858*** ***769363** ITAPECURU MIRIM R$ 1.000,00 01/10/2021
ARTUR PEREIRA ****01728110*** ***840533** ITAPECURU MIRIM R$ 1.000,00 01/10/2021
MARTA EVERTON RODRIGUES ****09661253*** ***292093** ITAPECURU MIRIM R$ 1.000,00 01/10/2021
ROBSON DOUGLAS BELFORT SILVA ****02947221*** ***969883** SAO LUIS R$ 1.000,00 01/10/2021
LINDALVA DOS SANTOS RAMOS ****09092100*** ***145373** SAO LUIS R$ 1.000,00 01/10/2021
CLARIMAR CUNHA ****03850535*** ***106613** BACURI R$ 1.000,00 01/10/2021
LUIZ FERNANDES MENDES COSTA ****03231403*** ***770703** SAO LUIS R$ 1.000,00 01/10/2021
GEANE LIMA ****05407174*** ***937553** MONCAO R$ 1.000,00 01/10/2021
JOSIANO DE JESUS DIAS COSTA ****03456039*** ***408853** ALCANTARA R$ 1.000,00 01/10/2021
MARIA DE FATIMA CARDOSO PEREIRA ****09194867*** ***888493** ITAPECURU MIRIM R$ 1.000,00 01/10/2021
JAMILSON PEREIRA VIEIRA ****02971182*** ***051313** PRESIDENTE VARGAS R$ 1.000,00 01/10/2021
EDIMILSON SILVA DOS SANTOS ****00878813*** ***104483** BACURI R$ 1.000,00 01/10/2021
TEREZA FRANCA RIBEIRO ****00696325*** ***165563** ALCANTARA R$ 1.000,00 01/10/2021
ANTONIA NIELZA PINHEIRO COLINS ****09541718*** ***587853** SAO LUIS R$ 1.000,00 01/10/2021
VITORINO OLIVEIRA ****07284514*** ***139043** ITAPECURU MIRIM R$ 1.000,00 01/10/2021
JOSE DE RIBAMAR SANTOS ****04002988*** ***381793** RAPOSA R$ 1.000,00 01/10/2021
VALDINEY BEZERRA DIAS ****03954381*** ***508313** SAO LUIS R$ 1.000,00 01/10/2021
AUGUSTO CARDOSO DOS SANTOS ****01531837*** ***175403** ITAPECURU MIRIM R$ 1.000,00 01/10/2021
ALTEREDO DE JESUS AMORIM ****07425835*** ***298073** SAO LUIS R$ 1.000,00 01/10/2021
IVANILDE DE SOUZA MORAES ****07899374*** ***103443** GUIMARAES R$ 1.000,00 01/10/2021
BENEDITA RIBEIRO SILVA ****07416644*** ***103483** MIRINZAL R$ 1.000,00 01/10/2021
TEREZINHA DE JESUS DE SOUSA DOS SANTOS ****01326845*** ***154883** ITAPECURU MIRIM R$ 1.000,00 01/10/2021
MARIA DO SOCORRO MENDES ****04212850*** s/n ITAPECURU MIRIM R$ 1.000,00 01/10/2021
REGINALDO JOSE VIEIRA VILAR ****03104742*** ***294363** SAO LUIS R$ 1.000,00 01/10/2021
SILVANA DA CONCEICAO RIBEIRO REGO ****03870463*** ***512403** ITAPECURU MIRIM R$ 1.000,00 01/10/2021
SIMONE RIBEIRO CAMPELO ****06473878*** ***538273** ALCANTARA R$ 1.000,00 01/10/2021
ISRAEL RIBEIRO PRADO ****08719670*** ***033973** MIRINZAL R$ 1.000,00 01/10/2021
ANTONIO DE JESUS DE SOUSA ROCHA ****07427394*** ***635803** ITAPECURU MIRIM R$ 1.000,00 01/10/2021
RAIMUNDO NONATO DOS SANTOS RAMOS ****09610215*** ***940972** BREJO R$ 1.000,00 01/10/2021
JUDITE FRANCA RODRIGUES ****00625842*** ***867313** ALCANTARA R$ 1.000,00 01/10/2021
GEOVANE DA CONCEICAO DE LEMOS ****00400747*** ***170993** ITAPECURU MIRIM R$ 1.000,00 01/10/2021
MANOEL DA CONCEICAO ARAUJO ****05968257*** ***883463** PORTO RICO DO MARANHAO R$ 1.000,00 01/10/2021
JOSE DO CARMO CUNHA MACHADO ****00646320*** ***465973** ITAPECURU MIRIM R$ 1.000,00 01/10/2021
JOCILENE RODRIGUES ARAUJO ****00721857*** ***171273** ALCANTARA R$ 1.000,00 01/10/2021
TATILAYANNI AGUIAR PAIXAO ****00370909*** ***611823** ALCANTARA R$ 1.000,00 01/10/2021
JACKSON FERREIRA ARAUJO ****09058197*** ***582563** ALCANTARA R$ 1.000,00 01/10/2021
EDSON GARCIA ALMEIDA ****08923867*** ***816353** ALCANTARA R$ 1.000,00 01/10/2021
JOANA DAMASCENA COSTA ****03198393*** ***296763** ALCANTARA R$ 1.000,00 01/10/2021
RAIMUNDO NONATO REIS PINHEIRO ****05396759*** ***025873** SANTA RITA R$ 1.000,00 01/10/2021
JOSE DO LIVRAMENTO MATOS DOS SANTOS ****05105382*** ***110143** ITAPECURU MIRIM R$ 1.000,00 01/10/2021
MARIA DOS ANJOS FELIX DA COSTA ****00941164*** ***122373** BREJO R$ 1.000,00 01/10/2021
VITORIA SILVA DOS SANTOS ****04837777*** ***645433** SAO LUIS R$ 1.000,00 01/10/2021
MARIA DE LOURDES PAULINO DE OLIVEIRA ****03193132*** ***294703** GRAJAU R$ 1.000,00 01/10/2021
RAIMUNDO BARBOSA ****04866603*** ***271723** MIRINZAL R$ 1.000,00 01/10/2021
JOAO PEDRO CAMARA AGUIAR ****03825021*** ***352813** ALCANTARA R$ 1.000,00 01/10/2021
MARIA SOUSA ****08101286*** ***778563** ITAPECURU MIRIM R$ 1.000,00 01/10/2021
BERTA CARPILINA MORAES ****01607193*** ***213923** SAO LUIS R$ 1.000,00 01/10/2021
ZILMA DE ASSIS DOS SANTOS ****05406349*** ***484303** SAO LUIS R$ 1.000,00 01/10/2021
ELIZANGELA OLIVEIRA FERREIRA ****06260719*** ***853223** BACURI R$ 1.000,00 01/10/2021
JURACI FERREIRA COSTA ****05166686*** ***322303** ACAILANDIA R$ 1.000,00 01/10/2021
ANTONIA JANETE DE SOUSA OLIVEIRA ****04543089*** ***169973** ACAILANDIA R$ 1.000,00 01/10/2021
ANTONIA DA GLORIA SOARES ****02196678*** ***997243** MIRINZAL R$ 1.000,00 01/10/2021
MARIA ELIELDA MOREIRA SILVA ****03766277*** ***925363** ACAILANDIA R$ 1.000,00 01/10/2021
ISMARQUE SOARES PONTES ****07458367*** ***800203** PORTO RICO DO MARANHAO R$ 1.000,00 01/10/2021
NAISA MACHADO LOPES BARBOSA ****04464075*** ***214533** ACAILANDIA R$ 1.000,00 01/10/2021
LEODOVINA BATISTA DOS SANTOS ****05356659*** ***224123** ACAILANDIA R$ 1.000,00 01/10/2021
FRANCIELE DA CONCEICAO BRITO ****08950485*** ***436183** BOM JESUS DAS SELVAS R$ 1.000,00 01/10/2021
JOSE BATISTA DE LIMA ****04979997*** ***404323** SANTA QUITERIA DO MARANHAO R$ 1.000,00 01/10/2021
ANA ELIZA DA SILVA LIMA ****07312817*** ***261603** SANTA QUITERIA DO MARANHAO R$ 1.000,00 01/10/2021
DARIOS PEREIRA DE SOUSA ****03602860*** ***114223** SAO ROBERTO R$ 1.000,00 01/10/2021
MARIA PEREIRA DOS SANTOS SOUSA ****09288027*** ***506663** SANTA QUITERIA DO MARANHAO R$ 1.000,00 01/10/2021
FRANCISCO DE MESQUITA SOUSA ****06485266*** ***656903** SANTA QUITERIA DO MARANHAO R$ 1.000,00 01/10/2021
FRANCISCO DAS CHAGAS LOURENCO DE LIMA ****07687800*** ***514353** SANTA QUITERIA DO MARANHAO R$ 1.000,00 01/10/2021
MARIA LIMA ARAUJO ****02013763*** ***746143** SANTA QUITERIA DO MARANHAO R$ 1.000,00 01/10/2021
JOSE GARCIA DA SILVA ****06876684*** ***560143** SANTA QUITERIA DO MARANHAO R$ 1.000,00 01/10/2021
MARIA DOS AFLITOS LIMA PEREIRA ****07910519*** ***166493** SANTA QUITERIA DO MARANHAO R$ 1.000,00 01/10/2021
SEBASTIAO RODRIGUES CARVALHO ****07543353*** ***497883** SANTA QUITERIA DO MARANHAO R$ 1.000,00 01/10/2021
LUIS RODRIGUES LIMA ****06459434*** ***654793** SANTA QUITERIA DO MARANHAO R$ 1.000,00 01/10/2021
FRANCISCO VITALINO DA SILVA ****08527501*** ***405223** SANTA QUITERIA DO MARANHAO R$ 1.000,00 01/10/2021
RAIMUNDA LOPES ****02988336*** ***227523** SANTA QUITERIA DO MARANHAO R$ 1.000,00 01/10/2021
JOAO PEREIRA DOS SANTOS FILHO ****04839145*** ***406343** SANTA QUITERIA DO MARANHAO R$ 1.000,00 01/10/2021
MARIA DIOGO SILVA ****09451263*** ***315523** SAO LUIS R$ 1.000,00 01/10/2021
MARIA FRANCISCA MESQUITA ****00084462*** ***527163** SANTA QUITERIA DO MARANHAO R$ 1.000,00 01/10/2021
MARIA MORAES DOS SANTOS ****01914510*** ***443183** SANTA QUITERIA DO MARANHAO R$ 1.000,00 01/10/2021
AGRIPINO DE SENA ****03504120*** ***525723** ITAPECURU MIRIM R$ 1.000,00 01/10/2021
RONILSON DOS SANTOS CARDOSO SOUSA ****03076466*** ***018543** ITAPECURU MIRIM R$ 1.000,00 01/10/2021
JOCIENE MENDES TAVARES ****02870521*** ***312763** BACURI R$ 1.000,00 01/10/2021
NORBERTO BATISTA RIBEIRO ****00147941*** ***476063** ITAPECURU MIRIM R$ 1.000,00 01/10/2021
RAIMUNDO NONATO FERREIRA SOUSA ****02951971*** ***126333** MONCAO R$ 1.000,00 01/10/2021
JACINTO DOS SANTOS NETO ****01688875*** ***934763** MONCAO R$ 1.000,00 01/10/2021
LINDALVA MELO MARREIROS ****08522348*** ***275703** PACO DO LUMIAR R$ 1.000,00 01/10/2021
ANANCY DO ROSARIO MENDONCA DA SILVA ****07675786*** ***458493** PACO DO LUMIAR R$ 1.000,00 01/10/2021
KEILIANY BATISTA CORDEIRO ****04959509*** ***308503** CAJARI R$ 1.000,00 01/10/2021
CLEBERTH PAVAO DE JESUS ****04123253*** ***030653** PORTO RICO DO MARANHAO R$ 1.000,00 01/10/2021
MARIA DO CARMO DE ARAUJO ****09694339*** ***840773** ACAILANDIA R$ 1.000,00 01/10/2021
ANGELA MARIA DOS ANJOS PEREIRA SERRA ****09377201*** ***255513** SAO VICENTE FERRER R$ 1.000,00 01/10/2021
MARIA RAIMUNDA PINHEIRO ASSUNCAO ****04557444*** ***816623** CAJAPIO R$ 1.000,00 01/10/2021
IRACI SILVA ALENCAR ****01025748*** ***822953** ACAILANDIA R$ 1.000,00 01/10/2021
JOSE ANTONIO MORAES ****04252344*** ***805753** CAJAPIO R$ 1.000,00 01/10/2021
JACIANE SOARES BELFORT ****04091623*** ***701533** CAJARI R$ 1.000,00 01/10/2021
TERESA DE JESUS MARTINS COSTA ****07527905*** ***749833** SAO LUIS R$ 1.000,00 01/10/2021
DOMINGOS BARBOSA SILVA ****00073423*** ***947167** MIRINZAL R$ 1.000,00 01/10/2021
ANTONIO RIBEIRO MAGALHAES ****05611036*** ***903483** SAO LUIS R$ 1.000,00 01/10/2021
GIOVANE MAGALHAES COIMBRA ****05638996*** ***859063** PORTO RICO DO MARANHAO R$ 1.000,00 01/10/2021
RAIMUNDO MORAIS SANTOS ****02480353*** ***029523** CAJARI R$ 1.000,00 01/10/2021
MARIA JOSE OLIVEIRA PAULINO ****09003787*** ***594683** MATA ROMA R$ 1.000,00 01/10/2021
ANTONIO COELHO DOS SANTOS ****00003336*** ***182173** ACAILANDIA R$ 1.000,00 01/10/2021
RONNALTY GRIGORIO CARNEIRO SILVA ****09834418*** ***157953** MIRINZAL R$ 1.000,00 01/10/2021
ANTONIO LUIS HENRRIQUE GUIMARAES ****01086468*** ***178003** ITAPECURU MIRIM R$ 1.000,00 01/10/2021
MANOEL MESSIAS CARNEIRO ****04524459*** ***871543** PIO XII R$ 1.000,00 01/10/2021
RAIMUNDO JOSE PEREIRA ****04730038*** ***780753** CAJAPIO R$ 1.000,00 01/10/2021
MARIA DOS REIS ALVES SILVA ****08273758*** ***950113** PIO XII R$ 1.000,00 01/10/2021
DARLIO DE JESUS MENDES COELHO ****00601540*** ***304123** MIRINZAL R$ 1.000,00 01/10/2021
MARIA JOSE MARTINS NASCIMENTO ****04209278*** ***743313** GUIMARAES R$ 1.000,00 01/10/2021
JOSE RIBAMAR FURTADO DA SILVA ****03448754*** ***775703** SAO LUIS R$ 1.000,00 01/10/2021
VALTERLINO RIBEIRO ****07768779*** ***779573** GUIMARAES R$ 1.000,00 01/10/2021
ELISANDRA EVERTON FREIRE ****04668041*** ***743043** CAJAPIO R$ 1.000,00 01/10/2021
SARA FERREIRA DA SILVA ****08688983*** ***688203** SAO LUIS R$ 1.000,00 01/10/2021
MARIA DA GLORIA BARBOSA ****05049230*** ***508383** GUIMARAES R$ 1.000,00 01/10/2021
EVANIA SAMPAIO PINHEIRO ****09603102*** ***549133** VIANA R$ 1.000,00 01/10/2021
JOSIVALDO SILVA SOUSA JUNIOR ****01340042*** ***525903** GUIMARAES R$ 1.000,00 01/10/2021
FRANCISCO CLENIO COSTA SAMPAIO ****06473934*** ***271853** ACAILANDIA R$ 1.000,00 01/10/2021
MIKELLY DE SA OLIVEIRA ****04666246*** ***384083** GUIMARAES R$ 1.000,00 01/10/2021
MARIA DOS REIS GOMES DOS SANTOS ****04244341*** ***888063** PARNARAMA R$ 1.000,00 01/10/2021
RAIMUNDO JOAQUIM PEREIRA ****09210817*** ***119513** CAJAPIO R$ 1.000,00 01/10/2021
MARIA DO NASCIMENTO BARROS CONCEICAO ****00976382*** ***321153** BACURITUBA R$ 1.000,00 01/10/2021
JOSELINO BARBOSA SOUSA ****01345284*** ***525993** GUIMARAES R$ 1.000,00 01/10/2021
ROSINETH GOMES SA ****01654558*** ***859383** BACURITUBA R$ 1.000,00 01/10/2021
RAIMUNDA NONATA FIGUEREDO AMARAL ****02934288*** ***003553** CAJAPIO R$ 1.000,00 01/10/2021
MARIA LINDALVA AIRES RODRIGUES ****55662780*** ***704523** CAJARI R$ 1.000,00 01/10/2021
FRANCISCA PEREIRA COSTA ****03687641*** ***692573** PACO DO LUMIAR R$ 1.000,00 01/10/2021
JOSELMA SOARES ****00966134*** ***093623** GUIMARAES R$ 1.000,00 01/10/2021
VALDECIR DE CILOS PEREIRA ****04042177*** ***668903** GUIMARAES R$ 1.000,00 01/10/2021
EDENILDE FONSECA DE AZEVEDO ****01130436*** ***556563** GUIMARAES R$ 1.000,00 01/10/2021
ANA CREUSA DOS SANTOS GOMES ****01928412*** ***271523** CAJAPIO R$ 1.000,00 01/10/2021
JOSE JOAO PINHEIRO CARDOSO ****00813141*** ***142373** CAJAPIO R$ 1.000,00 01/10/2021
JOAO BATISTA AIRES ****05353908*** ***531643** CAJARI R$ 1.000,00 01/10/2021
MARIA JOSE DE JESUS ****09832067*** ***564012** SATUBINHA R$ 1.000,00 01/10/2021
ANDREIA DE JESUS SILVA SANTOS ****03697183*** ***911603** CAJAPIO R$ 1.000,00 01/10/2021
DEISIANE MARTINS RODRIGUES ****08291047*** ***437753** SAO LUIS R$ 1.000,00 01/10/2021
LUCIA MARIA GOMES DOS SANTOS ****08066936*** ***945212** PARNARAMA R$ 1.000,00 01/10/2021
MARIA DA GRACA MARTINS TRINDADE ****05509185*** ***120863** GUIMARAES R$ 1.000,00 01/10/2021
JARDSON LIMA ****07418789*** ***815233** SAO LUIS R$ 1.000,00 01/10/2021
IDERLAN DOS SANTOS PEREIRA ****06179324*** ***243503** CAJAPIO R$ 1.000,00 01/10/2021
VALDECI DOS SANTOS ****04721380*** ***914283** CAJARI R$ 1.000,00 01/10/2021
ANTONIA DE FATIMA DIAS ****08631033*** ***988853** SAO LUIS R$ 1.000,00 01/10/2021
JOANA MACHADO ****01830185*** ***375313** CAJAPIO R$ 1.000,00 01/10/2021
VANIA MARIA MARTINS ****05268656*** ***403283** GUIMARAES R$ 1.000,00 01/10/2021
BALBINO DOS SANTOS SERRA ****01049942*** ***945183** CAJAPIO R$ 1.000,00 01/10/2021
JOSE ANTONIO PINHEIRO CARDOSO ****08538274*** ***683033** PACO DO LUMIAR R$ 1.000,00 01/10/2021
FRANCILDA DINIZ GONCALVES ****07116606*** ***847383** CAJARI R$ 1.000,00 01/10/2021
JOELSON DE JESUS CORREA ****05992988*** ***951813** CAJAPIO R$ 1.000,00 01/10/2021
ZENAIDE PEREIRA SEREJO ****01963037*** ***303243** CAJARI R$ 1.000,00 01/10/2021
PEDRO LUCAS PEREIRA FERREIRA ****06552669*** ***940083** ALCANTARA R$ 1.000,00 01/10/2021
JANILCE GOMES LIMA ****08681865*** ***857493** SANTA FILOMENA DO MARANHAO R$ 1.000,00 01/10/2021
ANDRESSA PAIVA SERRA ****09306811*** ***965093** CAJAPIO R$ 1.000,00 01/10/2021
JOIZILENE RODRIGUES RAMOS MENDES ****03334041*** ***241463** ALCANTARA R$ 1.000,00 01/10/2021
MANOEL PEREIRA DOS SANTOS ****05498818*** ***150182** SAO PEDRO DA AGUA BRANCA R$ 1.000,00 01/10/2021
LAURENI DA CONCEICAO ****00560002*** ***345943** GUIMARAES R$ 1.000,00 01/10/2021
DOMINGOS MACIEL COELHO PEREIRA ****04727649*** ***372213** PACO DO LUMIAR R$ 1.000,00 01/10/2021
JACKSON DE MATOS GONCALVES ****07117679*** ***340703** PRESIDENTE DUTRA R$ 1.000,00 01/10/2021
NILSON CORREA MACHADO ****00469691*** ***571733** MIRINZAL R$ 1.000,00 01/10/2021
FIDELINO DOS SANTOS ****06824613*** ***464063** ITAPECURU MIRIM R$ 1.000,00 01/10/2021
SIMONE OLIVEIRA SANTOS BONJARDIM ****04142758*** ***798733** ACAILANDIA R$ 1.000,00 01/10/2021
KAREM MIELLY MACHADO PEREIRA ****05996370*** ***713923** MIRINZAL R$ 1.000,00 01/10/2021
NEUZA DA SILVA GONCALVES ****09666300*** ***009043** MATA ROMA R$ 1.000,00 01/10/2021
FRANCISCA SALETE SANTOS SOARES ****03363579*** ***277483** PRESIDENTE DUTRA R$ 1.000,00 01/10/2021
MARIA DE FATIMA COSTA FONTINELE ****03135727*** ***069603** PIO XII R$ 1.000,00 01/10/2021
MARINALVA CARNEIRO ****07107168*** ***885463** PACO DO LUMIAR R$ 1.000,00 01/10/2021
ANTONIA AMBROSIO DA SILVA ****04849458*** ***050223** MATA ROMA R$ 1.000,00 01/10/2021
LUIS SALES SANTOS ****01118457*** ***190101** ACAILANDIA R$ 1.000,00 01/10/2021
MAYCK DOUGLAS ARAUJO COIMBRA ****03702496*** ***986023** MIRINZAL R$ 1.000,00 01/10/2021
JILSON JOSE MARTINS JUNIOR ****05900173*** ***720333** MIRINZAL R$ 1.000,00 01/10/2021
FRANCISCO MILTON DA CONCEICAO ****08591921*** ***355612** ACAILANDIA R$ 1.000,00 01/10/2021
DOMINGOS MESQUITA CHAVES ****03534900*** ***567713** ACAILANDIA R$ 1.000,00 01/10/2021
JOAO BATISTA VIVEIROS ****06734938*** ***650183** PACO DO LUMIAR R$ 1.000,00 01/10/2021
REJANIA PATRICIA CARVALHO SOUSA FERREIRA ****00656251*** ***649751** PRESIDENTE DUTRA R$ 1.000,00 01/10/2021
ROSIRENE DA SILVA SANTOS DE MORAIS ****07247904*** ***014633** ACAILANDIA R$ 1.000,00 01/10/2021
ANAYRAM OLIVEIRA FONTINELE ****07039286*** ***969743** ACAILANDIA R$ 1.000,00 01/10/2021
JOSE MARQUES DA SILVA FILHO ****01874465*** ***617343** CAJARI R$ 1.000,00 01/10/2021
MARIA ODETE DA SILVA ARAUJO ****04264885*** ***785803** ACAILANDIA R$ 1.000,00 01/10/2021
OCTAVIO PONTES DE DEUS ****03415171*** ***857163** MIRINZAL R$ 1.000,00 01/10/2021
EZENILDE SANTOS ****04054096*** ***752593** PORTO RICO DO MARANHAO R$ 1.000,00 01/10/2021
ROZIMEIRE ARAUJO ****03609529*** ***716803** SAO LUIS R$ 1.000,00 01/10/2021
JOSE RAIMUNDO PEREIRA ****07108390*** ***372823** CAJARI R$ 1.000,00 01/10/2021
EDIVANIA PEREIRA CAMPOS ****01629020*** ***591453** ACAILANDIA R$ 1.000,00 01/10/2021
ANA TERESA SANTOS FERREIRA ****07269108*** ***913403** CAJAPIO R$ 1.000,00 01/10/2021
ROSILDA PEREIRA COSTA ****04281967*** ***141233** GUIMARAES R$ 1.000,00 01/10/2021
JOSIVAN MUNIZ SILVA ****04128059*** ***640643** PACO DO LUMIAR R$ 1.000,00 01/10/2021
EDIONES ALMEIDA ****03980242*** ***144443** SAO LUIS R$ 1.000,00 01/10/2021
PLINIO RODRIGO SANTOS FONSECA ****02710209*** ***569353** PORTO RICO DO MARANHAO R$ 1.000,00 01/10/2021
LUCI MARTINS ALVES ****03672289*** ***151793** SAO LUIS R$ 1.000,00 01/10/2021
MARIA NILZA SOUSA PEREIRA ****02092133*** ***349733** MIRINZAL R$ 1.000,00 01/10/2021
MARIA DE LOURDES LIMA NASCIMENTO ****08058197*** ***215573** PIO XII R$ 1.000,00 01/10/2021
MARIA DORALICE MACHADO SILVA ****05674719*** ***765531** CAXIAS R$ 1.000,00 01/10/2021
JACIARA MELO MACHADO ****07682035*** ***531803** GUIMARAES R$ 1.000,00 01/10/2021
MARIA DA CONCEICAO ****04531246*** ***132823** ACAILANDIA R$ 1.000,00 01/10/2021
ADILSON RIBEIRO BARBOSA JUNIOR ****01705984*** ***568603** GUIMARAES R$ 1.000,00 01/10/2021
JOSEILSON PADILHA JANSEN ****00108191*** ***393063** MONCAO R$ 1.000,00 01/10/2021
ROSA MARIA SOUSA ****04090247*** ***400223** PIO XII R$ 5.000,00 01/10/2021
ILQUIAS MUNIZ RODRIGUES ****01718693*** ***016402** CONCEICAO DO LAGO-ACU R$ 5.000,00 01/10/2021
PATRICIA RIOS REIS DA SILVA ****02857379*** ***787313** IMPERATRIZ R$ 5.000,00 01/10/2021
THAIS SOUSA FERREIRA ****03737032*** ***437213** CAXIAS R$ 5.000,00 01/10/2021
FREDSON JEAN LOBATO SANTOS ****00998945*** ***408943** CONCEICAO DO LAGO-ACU R$ 5.000,00 01/10/2021
ANTONIA FERNANDA PERES SILVA ****07827019*** ***300543** OLHO D'AGUA DAS CUNHAS R$ 5.000,00 01/10/2021
MARIA ZELIA RODRIGUES DE FREITAS ****01015222*** ***605743** SAO ROBERTO R$ 5.000,00 01/10/2021
FRANCISCA SANTOS DO NASCIMENTO ****07175049*** ***221463** ALTO ALEGRE DO PINDARE R$ 5.000,00 01/10/2021
GYANN KARLA SABOIA PIRES ****03991300*** ***681393** GRAJAU R$ 5.000,00 01/10/2021
EVA MARIA BARBALHO DE SOUSA SA ****09527762*** ***709383** SAO JOAO DOS PATOS R$ 5.000,00 01/10/2021
ABIDIAS BEZERRA GABRIEL ****04080946*** ***566183** SANTA LUZIA R$ 5.000,00 01/10/2021
MARIA DOMINGAS DOS SANTOS E SANTOS ****06346494*** ***369103** HUMBERTO DE CAMPOS R$ 5.000,00 01/10/2021
VANHA FERREIRA DA SILVA ****03499492*** ***940133** AMARANTE DO MARANHAO R$ 5.000,00 01/10/2021
ANACI DE ABREU LIMA NASCIMENTO ****06607466*** ***175983** FORTUNA R$ 5.000,00 01/10/2021
SEVERINO DA SILVA BATISTA ****04077356*** ***019693** ACAILANDIA R$ 5.000,00 01/10/2021
DOMINGOS GOMES RIBEIRO ****08662825*** ***039783** GRAJAU R$ 5.000,00 01/10/2021
DONIZETE APARECIDO TROVOADA ****04785536*** ***276903** ACAILANDIA R$ 5.000,00 01/10/2021
IRAENE OLIVEIRA DA COSTA ****05665114*** ***087463** AMARANTE DO MARANHAO R$ 5.000,00 01/10/2021
CRISTINA OLIVEIRA CESAR ****03989460*** ***010733** BOM LUGAR R$ 5.000,00 01/10/2021
ADAILTON GOMES BEZERRA ****09696093*** ***990703** GOVERNADOR NEWTON BELLO R$ 5.000,00 01/10/2021
AURICILENE EVANGELISTA DE SOUSA ****04362374*** ***745643** SAO JOAO DOS PATOS R$ 5.000,00 01/10/2021
ANTONIO JOSE FEIRA DA CRUZ ****03108020*** ***145763** GOVERNADOR EUGENIO BARROS R$ 5.000,00 01/10/2021
REGINA MARIA MARTINS SILVA ****08104980*** ***269743** GRAJAU R$ 5.000,00 01/10/2021
DELZA MARIA FERREIRA DE ARAUJO ****02535001*** ***644553** SAO FRANCISCO DO MARANHAO R$ 5.000,00 01/10/2021
IVANEIDE ALMEIDA DO NASCIMENTO ****01058053*** ***822603** ACAILANDIA R$ 5.000,00 01/10/2021
CLAUDIANA DA CRUZ PACHECO GIRAO DA SILVA ****02363626*** ***153093** ALTO ALEGRE DO PINDARE R$ 5.000,00 01/10/2021
EDIANE DA CONCEICAO SILVA ****03013078*** ***544013** ALTO ALEGRE DO PINDARE R$ 5.000,00 01/10/2021
GENILDO DA SILVA RODRIGUES ****04653683*** ***467303** BOM LUGAR R$ 5.000,00 01/10/2021
FERNANDO OLIVEIRA ****09361320*** ***945253** CAXIAS R$ 5.000,00 01/10/2021
ADNA JULIANNA ARAGAO MAGALHAES ****02438577*** ***391523** SAO MATEUS DO MARANHAO R$ 5.000,00 01/10/2021
AMANDA SOUSA PESSOA ****06469043*** ***828583** SAO LUIS R$ 5.000,00 01/10/2021
EVA ESTER FRAZAO CASTRO ****07969371*** ***753163** PEDRO DO ROSARIO R$ 5.000,00 01/10/2021
EDER FERNANDO SEREJO DE CASTRO ****00869664*** ***374313** SAO LUIS R$ 5.000,00 01/10/2021
MARIA DAS DORES COSTA SILVA ****05115184*** ***569343** FORMOSA DA SERRA NEGRA R$ 5.000,00 01/10/2021
LUANA TEIXEIRA MACHADO ****00669314*** ***039313** SANTA LUZIA R$ 5.000,00 01/10/2021
EDILCILENE DA SILVA MARTINS ****02837308*** ***516723** SAO MATEUS DO MARANHAO R$ 5.000,00 01/10/2021
JACKSON DE JESUS MORAES ****07056550*** ***963263** CANTANHEDE R$ 5.000,00 01/10/2021
EMERSON DE JESUS PAIXAO FRANCA ****01053695*** ***062333** SAO LUIS R$ 5.000,00 01/10/2021
DANIEL SILVA TEIXEIRA ****00815243*** ***010753** PRESIDENTE JUSCELINO R$ 5.000,00 01/10/2021
PAULO JACINTO MESQUITA FERREIRA ****06628843*** ***581791** PASTOS BONS R$ 5.000,00 01/10/2021
MANOEL SOARES SOBRINHO ****06077202*** ***648133** BALSAS R$ 10.000,00 01/10/2021
IRACY SERRA FERREIRA ****04642527*** ***496453** SAO LUIS R$ 10.000,00 01/10/2021
OSVALDO ALEXANDRINO DA SILVA ****03378881*** ***927913** PASSAGEM FRANCA R$ 10.000,00 01/10/2021
ANA CLARA ANDRADE DE SOUSA ****03909592*** ***468743** SITIO NOVO R$ 10.000,00 01/10/2021
MARIA ELVIRA GONCALVES ****00281077*** ***549183** SAO LUIS R$ 10.000,00 01/10/2021
MARIA DO ROSARIO SANTOS DUTRA ****01042841*** ***710203** SAO LUIS R$ 10.000,00 01/10/2021
MARIA DE JESUS DA SILVA ****07454448*** ***812193** PASSAGEM FRANCA R$ 10.000,00 01/10/2021
JOSE RAIMUNDO RODRIGUES ****01805794*** ***742043** SAO LUIS R$ 10.000,00 01/10/2021
ARIDINA AMADA DIAS DA CONCEICAO ****07269799*** ***860403** SAO LUIS R$ 10.000,00 01/10/2021
BEDMILSON LIMA GOMES ****00190566*** ***414237** SAO LUIS R$ 10.000,00 01/10/2021
AUREA IOLANDA LEMKE ****06058664*** ***218149** BALSAS R$ 10.000,00 01/10/2021
ANA QUELMA RIBEIRO DE SOUSA ****06826474*** ***707393** GRAJAU R$ 10.000,00 01/10/2021
ALVINO JOAO PEREIRA NOGUEIRA ****00513566*** ***661183** SAO LUIS R$ 10.000,00 01/10/2021
RAIMUNDO NONATO CUTRIM ****03246055*** ***572863** SAO LUIS R$ 10.000,00 01/10/2021
JOSIAS DE SOUZA NOGUEIRA ****03288883*** ***320213** BALSAS R$ 10.000,00 01/10/2021
OTAVIO SERRA ****08484425*** ***250783** SAO LUIS R$ 10.000,00 01/10/2021
GERALDO LISBOA REIS ****02052924*** ***216643** SAO LUIS R$ 10.000,00 01/10/2021
FRANCISCA CARDOSO DOS SANTOS ****08694824*** ***726753** GRAJAU R$ 10.000,00 01/10/2021
ALDENIR DOS REMEDIOS SILVA LEITAO ****04111850*** ***089703** SAO LUIS R$ 10.000,00 01/10/2021
MARIA DE JESUS AIRES DE OLIVEIRA ****05686755*** ***804293** BURITI BRAVO R$ 10.000,00 01/10/2021
MARIA DALVA DO NASCIMENTO ****08708613*** ***547603** SITIO NOVO R$ 10.000,00 01/10/2021
RITA CARVALHO DA SILVA CRUZ ****03865954*** ***580363** BURITI BRAVO R$ 10.000,00 01/10/2021
FRANCINETE LIMA ANDRADE ****01290468*** ***150103** IMPERATRIZ R$ 10.000,00 01/10/2021
MARIA ITELVINA FEITOZA DOS SANTOS ****05462127*** ***753933** SAO LUIS R$ 10.000,00 01/10/2021
JOSE REINALDO FERREIRA DOS SANTOS ****02093911*** ***493633** SAO LUIS R$ 10.000,00 01/10/2021
MARIA EUNICE ALVES DO NASCIMENTO ****04121042*** ***749801** GRAJAU R$ 10.000,00 01/10/2021
JULIA LUCIA SILVA ****05639573*** ***439963** SAO LUIS R$ 10.000,00 01/10/2021
ANTONIA ROSA ALVES FERREIRA ****01096579*** ***068233** SAO LUIS R$ 10.000,00 01/10/2021
MARIA JOAQUINA DA SILVA ****07444470*** ***505983** SAO LUIS R$ 10.000,00 01/10/2021
ELISANGELA FERREIRA RIBEIRO ****08449498*** ***997013** VIANA R$ 10.000,00 01/10/2021
JOSE EDUARDO CAMPOS ****07767912*** ***141713** SAO LUIS R$ 10.000,00 01/10/2021
LUIS CARLOS ALVES DE LIMA ****06470239*** ***875603** SAO LUIS R$ 10.000,00 01/10/2021
JESUS PEREIRA DE MORAES ****01865332*** ***043623** SAO LUIS R$ 10.000,00 01/10/2021
ANTENOR MARINHO DOS SANTOS ****09566937*** ***329353** SAO LUIS R$ 10.000,00 01/10/2021
ESPEDITO BEZERRA DA SILVA ****06672053*** ***967513** GRAJAU R$ 10.000,00 01/10/2021
IVONETE ALVES TEIXEIRA ****08756433*** ***185763** SAO LUIS R$ 10.000,00 01/10/2021
CONCEICAO DE MARIA REIS CABRAL ****06728586*** ***419283** SAO LUIS R$ 10.000,00 01/10/2021
ARCANGELA SANTOS DA SILVA ****05907618*** ***752943** BALSAS R$ 10.000,00 01/10/2021
ANTONIO URUBATAN NASCIMENTO DA SILVA ****05639269*** ***812463** SAO LUIS R$ 10.000,00 01/10/2021
JOAO VITOR SANCHES COSTA ****07323207*** ***010403** SAO JOSE DE RIBAMAR R$ 10.000,00 01/10/2021
DOMINGAS SANTOS CARVALHO ****09560562*** ***527483** BALSAS R$ 10.000,00 01/10/2021
ALCIDES VALENTIM DE SOUSA ****06404079*** ***488213** SAO LUIS R$ 10.000,00 01/10/2021
PAULO SERGIO DE SOUZA BRAGA ****02031070*** ***888133** SAO LUIS R$ 10.000,00 01/10/2021
RAIMUNDO NONATO FERREIRA ****09182077*** ***174723** SAO LUIS R$ 10.000,00 01/10/2021
JOSE BONIFACIO TRAVASSOS OLIVEIRA ****07791701*** ***671483** SAO LUIS R$ 10.000,00 01/10/2021
JOSE CONCEICAO OLIVEIRA GARCIA DOS SANTOS ****00086302*** ***683813** SANTO AMARO DO MARANHAO R$ 10.000,00 01/10/2021
MARIA DO SOCORRO DA COSTA E SILVA ****01531648*** ***229303** BALSAS R$ 10.000,00 01/10/2021
MARIA PEREIRA DE SOUSA ****06581737*** ***112103** ANAPURUS R$ 10.000,00 01/10/2021
ANTONIA ELDA PINTO DE MORAIS ****01280271*** ***737923** PERITORO R$ 10.000,00 01/10/2021
DOMICILIA ORTEGAL SANTIAGO ****03262810*** ***409803** BALSAS R$ 10.000,00 01/10/2021

Contato

SEGOV - SECRETARIA DE GOVERNO DO MARANHÃO

Ed. João Goulart, Av. Dom Pedro II, Centro
São Luís - Maranhão

E-mail para contato: dosepremiada@segov.ma.gov.br

GOVERNO DO MARANHÃO 2021

Designed with Mobirise - More